BAW48 KSEA-EGLL

Flight info

Callsign BAW48
Flight time 8h 53m
Altitude 33000
Route SEA1 SEA DCT ALPSE DCT YDC/N0488F340 DCT 55N118W/N0490F330 60N114W/N0485F350 65N106W 70N092W 72N080W/M084F350 DCT MEDPA DCT 73N060W 72N040W/M084F370 70N030W 65N020W DCT BALIX/N0491F370 DCT NINEX DCT AKOMU DCT VAMEB DCT NUGRA
Aircraft B77W/H-SDE1E2E3FGHIJ2J3J4J5M1RWXY/LB1D1

Departure

Time 2026-05-07 10:43
Airport Seattle–Tacoma International Airport (KSEA)

Arrival

Time 2026-05-07 19:36
Airport London Heathrow Airport (EGLL)
Time Latitude Longitude Altitude Speed Heading
2026-05-07 10:30 47.43953 -122.30261 398 ft 0 kts 155°
2026-05-07 10:35 47.43955 -122.30262 398 ft 2 kts 155°
2026-05-07 10:36 47.43961 -122.30269 398 ft 3 kts 138°
2026-05-07 10:36 47.43972 -122.30291 395 ft 4 kts 124°
2026-05-07 10:36 47.43989 -122.30321 394 ft 4 kts 140°
2026-05-07 10:36 47.44011 -122.30341 397 ft 4 kts 169°
2026-05-07 10:37 47.44030 -122.30340 397 ft 0 kts 205°
2026-05-07 10:39 47.44025 -122.30345 396 ft 2 kts 207°
2026-05-07 10:39 47.44017 -122.30352 397 ft 1 kts 212°
2026-05-07 10:40 47.43972 -122.30446 397 ft 24 kts 249°
2026-05-07 10:40 47.43794 -122.30645 395 ft 39 kts 182°
2026-05-07 10:40 47.43536 -122.30570 395 ft 34 kts 173°
2026-05-07 10:40 47.43369 -122.30565 397 ft 20 kts 180°
2026-05-07 10:41 47.43237 -122.30567 397 ft 18 kts 181°
2026-05-07 10:41 47.43162 -122.30669 395 ft 14 kts 241°
2026-05-07 10:41 47.43176 -122.30785 397 ft 11 kts 327°
2026-05-07 10:41 47.43216 -122.30802 397 ft 3 kts 353°
2026-05-07 10:42 47.43238 -122.30804 395 ft 8 kts 357°
2026-05-07 10:42 47.43420 -122.30808 394 ft 58 kts
2026-05-07 10:42 47.44167 -122.30799 395 ft 155 kts
2026-05-07 10:42 47.45540 -122.30804 530 ft 226 kts
2026-05-07 10:43 47.47133 -122.30795 1772 ft 232 kts 359°
2026-05-07 10:43 47.48737 -122.30705 3120 ft 232 kts
2026-05-07 10:43 47.50308 -122.30082 3514 ft 247 kts 24°
2026-05-07 10:43 47.52004 -122.29225 3923 ft 263 kts 15°
2026-05-07 10:44 47.53781 -122.28579 4742 ft 266 kts 13°
2026-05-07 10:44 47.55573 -122.27985 5743 ft 261 kts 12°
2026-05-07 10:44 47.57358 -122.27408 6615 ft 265 kts 10°
2026-05-07 10:44 47.59185 -122.26825 7359 ft 269 kts 10°
2026-05-07 10:45 47.61013 -122.26238 8077 ft 275 kts 10°
2026-05-07 10:45 47.62890 -122.25637 8838 ft 277 kts 10°
2026-05-07 10:45 47.64787 -122.25030 9667 ft 279 kts 10°
2026-05-07 10:45 47.66697 -122.24420 10391 ft 284 kts 10°
2026-05-07 10:46 47.68696 -122.23784 10666 ft 306 kts 10°
2026-05-07 10:46 47.70858 -122.23097 10851 ft 330 kts 10°
2026-05-07 10:46 47.73193 -122.22353 11055 ft 354 kts 10°
2026-05-07 10:46 47.75647 -122.21568 11577 ft 366 kts 10°
2026-05-07 10:47 47.78166 -122.20759 12270 ft 373 kts 10°
2026-05-07 10:47 47.80696 -122.19945 13065 ft 378 kts 10°
2026-05-07 10:47 47.83281 -122.19112 13892 ft 382 kts 10°
2026-05-07 10:47 47.85901 -122.18270 14587 ft 388 kts
2026-05-07 10:48 47.88553 -122.17415 15313 ft 392 kts
2026-05-07 10:48 47.91229 -122.16553 16060 ft 395 kts
2026-05-07 10:48 47.93933 -122.15682 16782 ft 399 kts
2026-05-07 10:48 47.96667 -122.14800 17485 ft 404 kts
2026-05-07 10:49 47.99427 -122.13908 18163 ft 408 kts
2026-05-07 10:49 48.02212 -122.13006 18823 ft 412 kts
2026-05-07 10:49 48.05034 -122.12091 19426 ft 416 kts
2026-05-07 10:49 48.07832 -122.11184 20056 ft 419 kts
2026-05-07 10:50 48.10694 -122.10255 20673 ft 422 kts
2026-05-07 10:50 48.13596 -122.09215 21257 ft 427 kts 13°
2026-05-07 10:50 48.16342 -122.07535 21776 ft 438 kts 22°
2026-05-07 10:50 48.18991 -122.05187 22353 ft 447 kts 30°
2026-05-07 10:51 48.21414 -122.02213 22921 ft 454 kts 37°
2026-05-07 10:51 48.23765 -121.99000 23480 ft 458 kts 38°
2026-05-07 10:51 48.26105 -121.95724 23986 ft 462 kts 38°
2026-05-07 10:51 48.28467 -121.92406 24429 ft 466 kts 38°
2026-05-07 10:52 48.30848 -121.89077 24883 ft 469 kts 37°
2026-05-07 10:52 48.33257 -121.85730 25308 ft 471 kts 37°
2026-05-07 10:52 48.35658 -121.82415 25725 ft 475 kts 37°
2026-05-07 10:52 48.38105 -121.79044 26148 ft 478 kts 36°
2026-05-07 10:53 48.40574 -121.75645 26577 ft 481 kts 36°
2026-05-07 10:53 48.43054 -121.72228 27005 ft 485 kts 36°
2026-05-07 10:53 48.45549 -121.68789 27470 ft 487 kts 36°
2026-05-07 10:53 48.48053 -121.65332 27907 ft 490 kts 36°
2026-05-07 10:54 48.50572 -121.61850 28309 ft 493 kts 36°
2026-05-07 10:54 48.53110 -121.58333 28685 ft 495 kts 36°
2026-05-07 10:54 48.55620 -121.54852 29022 ft 498 kts 36°
2026-05-07 10:54 48.58182 -121.51292 29310 ft 501 kts 36°
2026-05-07 10:55 48.60762 -121.47708 29605 ft 504 kts 36°
2026-05-07 10:55 48.63341 -121.44108 29939 ft 506 kts 36°
2026-05-07 10:55 48.65934 -121.40488 30239 ft 507 kts 36°
2026-05-07 10:55 48.68534 -121.36846 30528 ft 509 kts 36°
2026-05-07 10:56 48.71092 -121.33260 30958 ft 506 kts 35°
2026-05-07 10:56 48.73670 -121.29645 31391 ft 503 kts 35°
2026-05-07 10:56 48.76232 -121.26046 31773 ft 502 kts 35°
2026-05-07 10:56 48.78798 -121.22438 32036 ft 503 kts 35°
2026-05-07 10:57 48.81361 -121.18826 32385 ft 502 kts 35°
2026-05-07 10:57 48.83909 -121.15231 32802 ft 499 kts 35°
2026-05-07 10:57 48.86444 -121.11648 33160 ft 497 kts 34°
2026-05-07 10:57 48.88984 -121.08058 33149 ft 502 kts 35°
2026-05-07 10:58 48.94095 -121.00820 33164 ft 500 kts 35°
2026-05-07 10:58 48.99048 -120.93780 33157 ft 498 kts 35°
2026-05-07 10:59 49.04115 -120.86556 33154 ft 498 kts 35°
2026-05-07 10:59 49.09172 -120.79324 33146 ft 497 kts 35°
2026-05-07 11:00 49.14218 -120.72088 33110 ft 497 kts 35°
2026-05-07 11:00 49.19213 -120.64903 33140 ft 496 kts 35°
2026-05-07 11:01 49.24247 -120.57643 33120 ft 496 kts 35°
2026-05-07 11:01 49.29260 -120.50389 33113 ft 495 kts 35°
2026-05-07 11:02 49.34233 -120.43185 33105 ft 493 kts 34°
2026-05-07 11:02 49.36927 -120.39932 33097 ft 481 kts 24°
2026-05-07 11:02 49.39781 -120.37476 33112 ft 471 kts 17°
2026-05-07 11:03 49.45891 -120.34329 33135 ft 457 kts
2026-05-07 11:03 49.52111 -120.32108 33093 ft 459 kts
2026-05-07 11:04 49.58345 -120.29854 33099 ft 460 kts
2026-05-07 11:04 49.64584 -120.27543 33092 ft 462 kts
2026-05-07 11:05 49.70802 -120.25206 33091 ft 463 kts
2026-05-07 11:05 49.77065 -120.22842 33084 ft 463 kts
2026-05-07 11:06 49.83329 -120.20471 33078 ft 462 kts
2026-05-07 11:06 49.89574 -120.18102 33074 ft 461 kts
2026-05-07 11:07 49.95768 -120.15748 33094 ft 461 kts
2026-05-07 11:07 50.01983 -120.13380 33070 ft 460 kts
2026-05-07 11:08 50.08200 -120.11005 33096 ft 460 kts
2026-05-07 11:08 50.14429 -120.08620 33070 ft 460 kts
2026-05-07 11:09 50.20643 -120.06234 33067 ft 459 kts
2026-05-07 11:09 50.26814 -120.03856 33072 ft 459 kts
2026-05-07 11:10 50.33014 -120.01461 33065 ft 458 kts
2026-05-07 11:10 50.39092 -119.99109 33061 ft 458 kts
2026-05-07 11:11 50.45261 -119.96716 33047 ft 459 kts
2026-05-07 11:11 50.51481 -119.94293 33048 ft 460 kts
2026-05-07 11:12 50.57699 -119.91866 33030 ft 461 kts
2026-05-07 11:12 50.63924 -119.89430 33025 ft 460 kts
2026-05-07 11:13 50.69089 -119.87403 33011 ft 459 kts
2026-05-07 11:13 50.76290 -119.84566 33042 ft 458 kts
2026-05-07 11:14 50.81492 -119.82517 33019 ft 458 kts
2026-05-07 11:14 50.87643 -119.80086 33003 ft 458 kts
2026-05-07 11:15 50.93833 -119.77631 33005 ft 458 kts
2026-05-07 11:15 51.00021 -119.75170 32992 ft 460 kts
2026-05-07 11:16 51.06200 -119.72708 33003 ft 460 kts
2026-05-07 11:16 51.12424 -119.70220 33014 ft 461 kts
2026-05-07 11:17 51.18653 -119.67726 33003 ft 461 kts
2026-05-07 11:17 51.24875 -119.65215 33008 ft 461 kts
2026-05-07 11:18 51.31112 -119.62699 33006 ft 462 kts
2026-05-07 11:18 51.37353 -119.60175 33003 ft 461 kts
2026-05-07 11:19 51.43539 -119.57669 32989 ft 461 kts
2026-05-07 11:19 51.49761 -119.55142 33025 ft 461 kts
2026-05-07 11:20 51.55985 -119.52602 32999 ft 460 kts
2026-05-07 11:20 51.62201 -119.50057 33003 ft 460 kts
2026-05-07 11:21 51.68365 -119.47530 33033 ft 459 kts
2026-05-07 11:21 51.74566 -119.44981 33042 ft 459 kts
2026-05-07 11:22 51.80729 -119.42440 33071 ft 459 kts
2026-05-07 11:22 51.86931 -119.39877 33050 ft 459 kts
2026-05-07 11:23 51.93120 -119.37320 33035 ft 459 kts
2026-05-07 11:23 51.99295 -119.34757 33033 ft 459 kts
2026-05-07 11:24 52.05479 -119.32153 33054 ft 461 kts
2026-05-07 11:24 52.11700 -119.29549 33038 ft 461 kts
2026-05-07 11:25 52.17896 -119.26956 33046 ft 462 kts
2026-05-07 11:25 52.24144 -119.24332 33036 ft 463 kts
2026-05-07 11:26 52.30388 -119.21696 33026 ft 464 kts
2026-05-07 11:26 52.36605 -119.19064 33020 ft 464 kts
2026-05-07 11:27 52.42870 -119.16413 33027 ft 463 kts
2026-05-07 11:27 52.49099 -119.13760 33050 ft 462 kts
2026-05-07 11:28 52.55340 -119.11085 33048 ft 464 kts
2026-05-07 11:28 52.61562 -119.08423 33050 ft 465 kts
2026-05-07 11:29 52.67861 -119.05721 33060 ft 467 kts
2026-05-07 11:29 52.74179 -119.03000 33048 ft 468 kts
2026-05-07 11:30 52.80455 -119.00286 33047 ft 469 kts
2026-05-07 11:30 52.86640 -118.97609 33038 ft 468 kts
2026-05-07 11:31 52.92936 -118.94872 33036 ft 467 kts
2026-05-07 11:31 52.99218 -118.92132 33043 ft 466 kts
2026-05-07 11:32 53.08627 -118.88014 33022 ft 466 kts
2026-05-07 11:33 53.14852 -118.85279 33025 ft 466 kts
2026-05-07 11:33 53.21128 -118.82515 33030 ft 466 kts
2026-05-07 11:34 53.27408 -118.79739 33033 ft 468 kts
2026-05-07 11:34 53.33702 -118.76955 33033 ft 467 kts
2026-05-07 11:35 53.40002 -118.74153 33017 ft 468 kts
2026-05-07 11:35 53.46260 -118.71361 33022 ft 467 kts
2026-05-07 11:36 53.52554 -118.68544 33013 ft 468 kts
2026-05-07 11:36 53.58855 -118.65718 33008 ft 467 kts
2026-05-07 11:37 53.65137 -118.62891 33020 ft 468 kts
2026-05-07 11:37 53.71430 -118.60050 33029 ft 467 kts
2026-05-07 11:38 53.77676 -118.57221 33022 ft 467 kts
2026-05-07 11:38 53.83958 -118.54367 33024 ft 467 kts
2026-05-07 11:39 53.90249 -118.51501 33020 ft 467 kts
2026-05-07 11:39 53.96528 -118.48631 33029 ft 467 kts
2026-05-07 11:40 54.02766 -118.45771 33017 ft 467 kts
2026-05-07 11:40 54.09057 -118.42877 33017 ft 467 kts
2026-05-07 11:41 54.15325 -118.39984 33002 ft 466 kts
2026-05-07 11:41 54.21544 -118.37105 33001 ft 465 kts
2026-05-07 11:42 54.27791 -118.34205 33011 ft 465 kts
2026-05-07 11:42 54.34043 -118.31294 32990 ft 465 kts
2026-05-07 11:43 54.40285 -118.28378 32991 ft 465 kts
2026-05-07 11:43 54.46529 -118.25450 32975 ft 464 kts
2026-05-07 11:44 54.52713 -118.22542 32977 ft 463 kts
2026-05-07 11:44 54.58933 -118.19608 32990 ft 462 kts
2026-05-07 11:45 54.65145 -118.16670 32972 ft 463 kts
2026-05-07 11:45 54.71324 -118.13737 32968 ft 463 kts
2026-05-07 11:46 54.77547 -118.10774 32973 ft 463 kts
2026-05-07 11:46 54.83766 -118.07802 32961 ft 463 kts
2026-05-07 11:47 54.89990 -118.04819 32952 ft 462 kts
2026-05-07 11:47 54.96151 -118.01857 32964 ft 462 kts
2026-05-07 11:48 55.02192 -117.98615 32961 ft 467 kts 14°
2026-05-07 11:48 55.08254 -117.94416 32953 ft 468 kts 15°
2026-05-07 11:49 55.14257 -117.90175 32956 ft 468 kts 15°
2026-05-07 11:49 55.20282 -117.85941 32941 ft 469 kts 15°
2026-05-07 11:50 55.26292 -117.81733 32964 ft 469 kts 15°
2026-05-07 11:50 55.32371 -117.77477 32944 ft 470 kts 15°
2026-05-07 11:51 55.38456 -117.73200 32934 ft 471 kts 15°
2026-05-07 11:51 55.44508 -117.68931 32939 ft 471 kts 15°
2026-05-07 11:52 55.50587 -117.64628 32936 ft 470 kts 15°
2026-05-07 11:52 55.56649 -117.60319 32935 ft 468 kts 15°
2026-05-07 11:53 55.62691 -117.56013 32935 ft 466 kts 15°
2026-05-07 11:53 55.68667 -117.51740 32941 ft 465 kts 15°
2026-05-07 11:54 55.74674 -117.47433 32933 ft 465 kts 15°
2026-05-07 11:54 55.80683 -117.43111 32979 ft 466 kts 15°
2026-05-07 11:55 55.86659 -117.38796 32936 ft 466 kts 15°
2026-05-07 11:55 55.92673 -117.34438 32929 ft 466 kts 15°
2026-05-07 11:56 55.98687 -117.30065 32918 ft 466 kts 15°
2026-05-07 11:56 56.04695 -117.25684 32913 ft 467 kts 15°
2026-05-07 11:57 56.10672 -117.21311 32909 ft 467 kts 15°
2026-05-07 11:57 56.16704 -117.16880 32933 ft 469 kts 16°
2026-05-07 11:58 56.22755 -117.12421 32929 ft 469 kts 16°
2026-05-07 11:58 56.28754 -117.07986 32928 ft 469 kts 16°
2026-05-07 11:59 56.34788 -117.03510 32941 ft 469 kts 16°
2026-05-07 11:59 56.40707 -116.99105 32931 ft 470 kts 16°
2026-05-07 12:00 56.46749 -116.94590 32929 ft 470 kts 16°
2026-05-07 12:00 56.52797 -116.90056 32949 ft 471 kts 17°
2026-05-07 12:01 56.58863 -116.85493 32934 ft 471 kts 17°
2026-05-07 12:01 56.64882 -116.80951 32929 ft 471 kts 17°
2026-05-07 12:02 56.70950 -116.76355 32960 ft 471 kts 17°
2026-05-07 12:02 56.75980 -116.72534 32946 ft 471 kts 17°
2026-05-07 12:03 56.82036 -116.67917 32933 ft 472 kts 17°
2026-05-07 12:03 56.88112 -116.63268 32936 ft 472 kts 18°
2026-05-07 12:04 56.94146 -116.58637 32934 ft 473 kts 18°
2026-05-07 12:04 57.00225 -116.53954 32935 ft 473 kts 18°
2026-05-07 12:05 57.06302 -116.49255 32947 ft 473 kts 18°
2026-05-07 12:05 57.12341 -116.44571 32931 ft 474 kts 18°
2026-05-07 12:06 57.18425 -116.39833 32934 ft 474 kts 18°
2026-05-07 12:06 57.24514 -116.35073 32937 ft 475 kts 18°
2026-05-07 12:07 57.30605 -116.30296 32929 ft 476 kts 18°
2026-05-07 12:07 57.36697 -116.25501 32930 ft 476 kts 18°
2026-05-07 12:08 57.42793 -116.20686 32937 ft 476 kts 18°
2026-05-07 12:08 57.48857 -116.15878 32921 ft 476 kts 18°
2026-05-07 12:09 57.54951 -116.11029 32933 ft 475 kts 19°
2026-05-07 12:09 57.61038 -116.06166 32917 ft 476 kts 19°
2026-05-07 12:10 57.67131 -116.01284 32908 ft 476 kts 19°
2026-05-07 12:10 57.73099 -115.96482 32894 ft 476 kts 19°
2026-05-07 12:11 57.79146 -115.91599 32910 ft 476 kts 19°
2026-05-07 12:11 57.85242 -115.86660 32883 ft 476 kts 19°
2026-05-07 12:12 57.91331 -115.81707 32904 ft 476 kts 19°
2026-05-07 12:12 57.97381 -115.76768 32888 ft 477 kts 19°
2026-05-07 12:13 58.03473 -115.71776 32881 ft 478 kts 19°
2026-05-07 12:13 58.09576 -115.66756 32881 ft 478 kts 19°
2026-05-07 12:14 58.15675 -115.61721 32886 ft 478 kts 19°
2026-05-07 12:14 58.21766 -115.56673 32883 ft 478 kts 19°
2026-05-07 12:15 58.27824 -115.51634 32894 ft 478 kts 19°
2026-05-07 12:15 58.33933 -115.46534 32884 ft 479 kts 20°
2026-05-07 12:16 58.40046 -115.41411 32886 ft 480 kts 20°
2026-05-07 12:16 58.46128 -115.36294 32876 ft 480 kts 20°
2026-05-07 12:17 58.52252 -115.31122 32867 ft 480 kts 20°
2026-05-07 12:17 58.58343 -115.25957 32874 ft 480 kts 20°
2026-05-07 12:18 58.64455 -115.20757 32870 ft 480 kts 20°
2026-05-07 12:18 58.70568 -115.15534 32867 ft 479 kts 20°
2026-05-07 12:19 58.76657 -115.10312 32877 ft 479 kts 20°
2026-05-07 12:19 58.82702 -115.05109 32872 ft 478 kts 20°
2026-05-07 12:20 58.88717 -114.99912 32877 ft 479 kts 20°
2026-05-07 12:20 58.94726 -114.94699 32877 ft 478 kts 20°
2026-05-07 12:21 59.00772 -114.89433 32887 ft 479 kts 20°
2026-05-07 12:21 59.06854 -114.84117 32884 ft 480 kts 20°
2026-05-07 12:22 59.12953 -114.78765 32869 ft 480 kts 20°
2026-05-07 12:22 59.19045 -114.73397 32873 ft 481 kts 20°
2026-05-07 12:23 59.25141 -114.68005 32876 ft 481 kts 20°
2026-05-07 12:23 59.31247 -114.62582 32864 ft 481 kts 20°
2026-05-07 12:24 59.37347 -114.57143 32884 ft 481 kts 20°
2026-05-07 12:24 59.43447 -114.51683 32861 ft 481 kts 21°
2026-05-07 12:25 59.49477 -114.46264 32864 ft 481 kts 21°
2026-05-07 12:25 59.55581 -114.40756 32864 ft 481 kts 21°
2026-05-07 12:26 59.61636 -114.35272 32863 ft 481 kts 21°
2026-05-07 12:26 59.67723 -114.29735 32872 ft 481 kts 21°
2026-05-07 12:27 59.73811 -114.24176 32889 ft 481 kts 21°
2026-05-07 12:27 59.79898 -114.18595 32885 ft 482 kts 21°
2026-05-07 12:28 59.85990 -114.12987 32885 ft 482 kts 21°
2026-05-07 12:28 59.92041 -114.07394 32877 ft 483 kts 21°
2026-05-07 12:29 59.98142 -114.01732 32878 ft 483 kts 22°
2026-05-07 12:29 60.03891 -113.95223 32902 ft 486 kts 29°
2026-05-07 12:30 60.09524 -113.87796 32894 ft 487 kts 31°
2026-05-07 12:30 60.15181 -113.80256 32898 ft 488 kts 30°
2026-05-07 12:31 60.20850 -113.72752 32897 ft 488 kts 30°
2026-05-07 12:31 60.26528 -113.65254 32898 ft 488 kts 30°
2026-05-07 12:32 60.32210 -113.57733 32901 ft 488 kts 30°
2026-05-07 12:32 60.37849 -113.50233 32902 ft 488 kts 30°
2026-05-07 12:33 60.46358 -113.38852 32909 ft 488 kts 31°
2026-05-07 12:33 60.52016 -113.31242 32915 ft 487 kts 31°
2026-05-07 12:34 60.57666 -113.23611 32917 ft 487 kts 31°
2026-05-07 12:34 60.63313 -113.15951 32916 ft 487 kts 31°
2026-05-07 12:35 60.68921 -113.08311 32922 ft 487 kts 31°
2026-05-07 12:35 60.74560 -113.00597 32927 ft 487 kts 31°
2026-05-07 12:36 60.80064 -112.93035 32923 ft 487 kts 31°
2026-05-07 12:36 60.85688 -112.85275 32923 ft 486 kts 32°
2026-05-07 12:37 60.91302 -112.77497 32934 ft 486 kts 32°
2026-05-07 12:37 60.96880 -112.69734 32921 ft 486 kts 32°
2026-05-07 12:38 61.02460 -112.61934 32934 ft 486 kts 32°
2026-05-07 12:38 61.08066 -112.54065 32941 ft 487 kts 33°
2026-05-07 12:39 61.13669 -112.46164 32930 ft 487 kts 33°
2026-05-07 12:39 61.19233 -112.38287 32932 ft 487 kts 33°
2026-05-07 12:40 61.24843 -112.30307 32938 ft 488 kts 33°
2026-05-07 12:40 61.30440 -112.22312 32945 ft 488 kts 33°
2026-05-07 12:41 61.36038 -112.14279 32941 ft 488 kts 34°
2026-05-07 12:41 61.41596 -112.06270 32952 ft 489 kts 34°
2026-05-07 12:42 61.47092 -111.98314 32948 ft 489 kts 34°
2026-05-07 12:42 61.52685 -111.90182 32956 ft 489 kts 34°
2026-05-07 12:43 61.58251 -111.82053 32953 ft 489 kts 34°
2026-05-07 12:43 61.63842 -111.73851 32960 ft 489 kts 34°
2026-05-07 12:44 61.69423 -111.65628 32962 ft 489 kts 34°
2026-05-07 12:44 61.74982 -111.57399 32962 ft 488 kts 35°
2026-05-07 12:45 61.80500 -111.49193 32961 ft 487 kts 35°
2026-05-07 12:45 61.86035 -111.40927 32961 ft 487 kts 35°
2026-05-07 12:46 61.91573 -111.32618 32972 ft 487 kts 35°
2026-05-07 12:46 61.97071 -111.24332 32973 ft 487 kts 35°
2026-05-07 12:47 62.02592 -111.15973 32978 ft 487 kts 35°
2026-05-07 12:47 62.08116 -111.07570 32978 ft 487 kts 35°
2026-05-07 12:48 62.13524 -110.99309 32983 ft 488 kts 36°
2026-05-07 12:48 62.19013 -110.90884 32988 ft 488 kts 36°
2026-05-07 12:49 62.24529 -110.82381 32985 ft 488 kts 36°
2026-05-07 12:49 62.29099 -110.75305 33002 ft 486 kts 36°
2026-05-07 12:50 62.34592 -110.66765 32989 ft 484 kts 36°
2026-05-07 12:50 62.40034 -110.58264 33002 ft 482 kts 36°
2026-05-07 12:51 62.45460 -110.49751 33003 ft 481 kts 36°
2026-05-07 12:51 62.50831 -110.41284 33005 ft 481 kts 36°
2026-05-07 12:52 62.56241 -110.32717 33011 ft 481 kts 36°
2026-05-07 12:52 62.61640 -110.24128 33019 ft 480 kts 36°
2026-05-07 12:53 62.67026 -110.15519 33017 ft 479 kts 36°
2026-05-07 12:53 62.72352 -110.06969 33020 ft 478 kts 36°
2026-05-07 12:54 62.77583 -109.98533 33027 ft 477 kts 36°
2026-05-07 12:54 62.82919 -109.89887 33033 ft 477 kts 36°
2026-05-07 12:55 62.88247 -109.81215 33033 ft 477 kts 36°
2026-05-07 12:55 62.93533 -109.72568 33049 ft 477 kts 36°
2026-05-07 12:56 62.98859 -109.63819 33039 ft 477 kts 36°
2026-05-07 12:56 63.04154 -109.55082 33049 ft 476 kts 36°
2026-05-07 12:57 63.09431 -109.46331 33053 ft 476 kts 37°
2026-05-07 12:57 63.14713 -109.37530 33059 ft 476 kts 37°
2026-05-07 12:58 63.19990 -109.28698 33060 ft 476 kts 37°
2026-05-07 12:58 63.25269 -109.19820 33068 ft 475 kts 36°
2026-05-07 12:59 63.30526 -109.10939 33067 ft 474 kts 36°
2026-05-07 12:59 63.35733 -109.02100 33074 ft 473 kts 36°
2026-05-07 13:00 63.40857 -108.93362 33079 ft 472 kts 37°
2026-05-07 13:00 63.46076 -108.84419 33079 ft 472 kts 37°
2026-05-07 13:01 63.51287 -108.75449 33080 ft 472 kts 37°
2026-05-07 13:01 63.56490 -108.66447 33086 ft 471 kts 36°
2026-05-07 13:02 63.61645 -108.57490 33079 ft 470 kts 36°
2026-05-07 13:02 63.66802 -108.48486 33086 ft 468 kts 36°
2026-05-07 13:03 63.71947 -108.39461 33087 ft 468 kts 36°
2026-05-07 13:03 63.77048 -108.30470 33087 ft 467 kts 36°
2026-05-07 13:04 63.82168 -108.21403 33088 ft 468 kts 37°
2026-05-07 13:04 63.87295 -108.12280 33094 ft 468 kts 37°
2026-05-07 13:05 63.92408 -108.03139 33083 ft 467 kts 37°
2026-05-07 13:05 63.97416 -107.94143 33088 ft 466 kts 37°
2026-05-07 13:06 64.02464 -107.85031 33086 ft 466 kts 37°
2026-05-07 13:06 64.07540 -107.75826 33087 ft 465 kts 37°
2026-05-07 13:07 64.12608 -107.66591 33088 ft 465 kts 37°
2026-05-07 13:07 64.17676 -107.57316 33102 ft 465 kts 37°
2026-05-07 13:08 64.22700 -107.48069 33091 ft 465 kts 37°
2026-05-07 13:08 64.27742 -107.38747 33092 ft 464 kts 38°
2026-05-07 13:09 64.32768 -107.29411 33106 ft 464 kts 38°
2026-05-07 13:09 64.37793 -107.20030 33102 ft 464 kts 38°
2026-05-07 13:10 64.42818 -107.10606 33105 ft 464 kts 38°
2026-05-07 13:10 64.47805 -107.01207 33119 ft 465 kts 39°
2026-05-07 13:11 64.52737 -106.91868 33118 ft 467 kts 39°
2026-05-07 13:11 64.57762 -106.82303 33116 ft 468 kts 39°
2026-05-07 13:12 64.62776 -106.72712 33114 ft 469 kts 39°
2026-05-07 13:12 64.67822 -106.63013 33128 ft 470 kts 39°
2026-05-07 13:13 64.72873 -106.53256 33122 ft 469 kts 39°
2026-05-07 13:13 64.77903 -106.43492 33142 ft 469 kts 39°
2026-05-07 13:14 64.82905 -106.33732 33134 ft 470 kts 40°
2026-05-07 13:14 64.87926 -106.23885 33138 ft 470 kts 40°
2026-05-07 13:15 64.92956 -106.13972 33136 ft 470 kts 40°
2026-05-07 13:15 64.97945 -106.04093 33136 ft 471 kts 40°
2026-05-07 13:16 65.02828 -105.94322 33144 ft 471 kts 41°
2026-05-07 13:16 65.07790 -105.84172 33144 ft 471 kts 41°
2026-05-07 13:17 65.12738 -105.73978 33138 ft 471 kts 41°
2026-05-07 13:17 65.17687 -105.63746 33150 ft 471 kts 41°
2026-05-07 13:18 65.22630 -105.53490 33149 ft 471 kts 41°
2026-05-07 13:18 65.27569 -105.43190 33152 ft 471 kts 41°
2026-05-07 13:19 65.32479 -105.32900 33153 ft 471 kts 41°
2026-05-07 13:19 65.37406 -105.22521 33157 ft 471 kts 41°
2026-05-07 13:20 65.42326 -105.12100 33161 ft 470 kts 41°
2026-05-07 13:20 65.47208 -105.01707 33148 ft 467 kts 41°
2026-05-07 13:21 65.51933 -104.91598 33139 ft 465 kts 42°
2026-05-07 13:21 65.56760 -104.81212 33160 ft 464 kts 42°
2026-05-07 13:22 65.61593 -104.70766 33162 ft 466 kts 42°
2026-05-07 13:22 65.66402 -104.60315 33161 ft 467 kts 42°
2026-05-07 13:23 65.71241 -104.49745 33173 ft 467 kts 42°
2026-05-07 13:23 65.76053 -104.39176 33152 ft 464 kts 42°
2026-05-07 13:24 65.80829 -104.28631 33151 ft 461 kts 42°
2026-05-07 13:24 65.85539 -104.18179 33154 ft 459 kts 42°
2026-05-07 13:25 65.90246 -104.07679 33159 ft 458 kts 42°
2026-05-07 13:25 65.94850 -103.97357 33141 ft 458 kts 43°
2026-05-07 13:26 65.99557 -103.86748 33160 ft 460 kts 43°
2026-05-07 13:26 66.04256 -103.76101 33160 ft 461 kts 43°
2026-05-07 13:27 66.08934 -103.65447 33156 ft 460 kts 43°
2026-05-07 13:27 66.13625 -103.54706 33153 ft 459 kts 43°
2026-05-07 13:28 66.18303 -103.43938 33151 ft 458 kts 43°
2026-05-07 13:28 66.22959 -103.33166 33153 ft 457 kts 43°
2026-05-07 13:29 66.27571 -103.22436 33150 ft 457 kts 43°
2026-05-07 13:29 66.32202 -103.11605 33162 ft 456 kts 43°
2026-05-07 13:30 66.36809 -103.00773 33138 ft 453 kts 43°
2026-05-07 13:30 66.41255 -102.90265 33146 ft 452 kts 43°
2026-05-07 13:31 66.45829 -102.79402 33147 ft 452 kts 43°
2026-05-07 13:31 66.50383 -102.68525 33146 ft 452 kts 43°
2026-05-07 13:32 66.54931 -102.57603 33148 ft 453 kts 43°
2026-05-07 13:32 66.59450 -102.46696 33148 ft 454 kts 43°
2026-05-07 13:33 66.63996 -102.35664 33144 ft 453 kts 43°
2026-05-07 13:33 66.68515 -102.24636 33145 ft 451 kts 44°
2026-05-07 13:34 66.75251 -102.08091 33141 ft 448 kts 44°
2026-05-07 13:35 66.79614 -101.97304 33142 ft 448 kts 44°
2026-05-07 13:35 66.84080 -101.86201 33147 ft 450 kts 44°
2026-05-07 13:36 66.88523 -101.75096 33148 ft 451 kts 44°
2026-05-07 13:36 66.93003 -101.63841 33149 ft 451 kts 44°
2026-05-07 13:37 66.97462 -101.52575 33132 ft 450 kts 44°
2026-05-07 13:37 67.01144 -101.43225 33140 ft 449 kts 44°
2026-05-07 13:38 67.05571 -101.31927 33138 ft 448 kts 45°
2026-05-07 13:38 67.09980 -101.20615 33136 ft 448 kts 45°
2026-05-07 13:39 67.14371 -101.09286 33136 ft 447 kts 45°
2026-05-07 13:39 67.18633 -100.98233 33131 ft 447 kts 45°
2026-05-07 13:40 67.23020 -100.86791 33137 ft 449 kts 45°
2026-05-07 13:40 67.27405 -100.75291 33131 ft 449 kts 45°
2026-05-07 13:41 67.31785 -100.63742 33126 ft 449 kts 46°
2026-05-07 13:41 67.36158 -100.52147 33128 ft 449 kts 46°
2026-05-07 13:42 67.40523 -100.40507 33128 ft 449 kts 46°
2026-05-07 13:42 67.44852 -100.28900 33120 ft 449 kts 46°
2026-05-07 13:43 67.49220 -100.17121 33147 ft 449 kts 46°
2026-05-07 13:43 67.53563 -100.05348 33130 ft 450 kts 46°
2026-05-07 13:44 67.57793 -99.93812 33125 ft 451 kts 47°
2026-05-07 13:44 67.62131 -99.81918 33122 ft 451 kts 47°
2026-05-07 13:45 67.66466 -99.69962 33105 ft 452 kts 47°
2026-05-07 13:45 67.70800 -99.57941 33119 ft 452 kts 47°
2026-05-07 13:46 67.75120 -99.45892 33126 ft 452 kts 47°
2026-05-07 13:46 67.79410 -99.33856 33107 ft 453 kts 48°
2026-05-07 13:47 67.83730 -99.21667 33114 ft 455 kts 48°
2026-05-07 13:47 67.88063 -99.09369 33111 ft 456 kts 48°
2026-05-07 13:48 67.92265 -98.97374 33105 ft 457 kts 48°
2026-05-07 13:48 67.96587 -98.84964 33086 ft 457 kts 48°
2026-05-07 13:49 68.00889 -98.72538 33103 ft 456 kts 49°
2026-05-07 13:49 68.05166 -98.60115 33105 ft 455 kts 49°
2026-05-07 13:50 68.09406 -98.47723 33100 ft 454 kts 49°
2026-05-07 13:50 68.13661 -98.35216 33106 ft 453 kts 49°
2026-05-07 13:51 68.17880 -98.22740 33111 ft 453 kts 49°
2026-05-07 13:51 68.22107 -98.10165 33106 ft 453 kts 49°
2026-05-07 13:52 68.26239 -97.97803 33102 ft 453 kts 49°
2026-05-07 13:52 68.30454 -97.85117 33108 ft 453 kts 49°
2026-05-07 13:53 68.34657 -97.72389 33108 ft 454 kts 49°
2026-05-07 13:53 68.38865 -97.59576 33099 ft 454 kts 50°
2026-05-07 13:54 68.43036 -97.46790 33110 ft 455 kts 51°
2026-05-07 13:54 68.47236 -97.33839 33107 ft 456 kts 51°
2026-05-07 13:55 68.51426 -97.20839 33105 ft 456 kts 51°
2026-05-07 13:55 68.55614 -97.07769 33108 ft 456 kts 51°
2026-05-07 13:56 68.59675 -96.95018 33107 ft 456 kts 51°
2026-05-07 13:56 68.63837 -96.81872 33112 ft 456 kts 52°
2026-05-07 13:57 68.67989 -96.68673 33109 ft 456 kts 52°
2026-05-07 13:57 68.72131 -96.55419 33104 ft 456 kts 52°
2026-05-07 13:58 68.76256 -96.42143 33110 ft 456 kts 52°
2026-05-07 13:58 68.80354 -96.28871 33105 ft 456 kts 52°
2026-05-07 13:59 68.84436 -96.15566 33107 ft 457 kts 53°
2026-05-07 13:59 68.88541 -96.02103 33105 ft 457 kts 53°
2026-05-07 14:00 68.92558 -95.88847 33106 ft 457 kts 53°
2026-05-07 14:00 68.96657 -95.75236 33118 ft 458 kts 53°
2026-05-07 14:01 69.00745 -95.61574 33121 ft 459 kts 53°
2026-05-07 14:01 69.04808 -95.47908 33109 ft 460 kts 53°
2026-05-07 14:02 69.08886 -95.34104 33109 ft 460 kts 53°
2026-05-07 14:02 69.12952 -95.20253 33089 ft 460 kts 54°
2026-05-07 14:03 69.17003 -95.06360 33099 ft 459 kts 54°
2026-05-07 14:03 69.20936 -94.92786 33100 ft 460 kts 54°
2026-05-07 14:04 69.24969 -94.78780 33104 ft 460 kts 54°
2026-05-07 14:04 69.28999 -94.64689 33108 ft 461 kts 54°
2026-05-07 14:05 69.33024 -94.50523 33104 ft 462 kts 54°
2026-05-07 14:05 69.37007 -94.36415 33111 ft 462 kts 54°
2026-05-07 14:06 69.41020 -94.22104 33111 ft 462 kts 54°
2026-05-07 14:06 69.45008 -94.07790 33097 ft 461 kts 54°
2026-05-07 14:07 69.48897 -93.93739 33095 ft 460 kts 55°
2026-05-07 14:07 69.52859 -93.79323 33112 ft 461 kts 55°
2026-05-07 14:08 69.56812 -93.64843 33121 ft 462 kts 55°
2026-05-07 14:08 69.60735 -93.50380 33122 ft 463 kts 55°
2026-05-07 14:09 69.64672 -93.35766 33121 ft 463 kts 55°
2026-05-07 14:09 69.68608 -93.21060 33121 ft 463 kts 56°
2026-05-07 14:10 69.72518 -93.06350 33117 ft 464 kts 56°
2026-05-07 14:10 69.76360 -92.91795 33118 ft 463 kts 56°
2026-05-07 14:11 69.80243 -92.76982 33129 ft 462 kts 56°
2026-05-07 14:11 69.84090 -92.62207 33125 ft 461 kts 56°
2026-05-07 14:12 69.87950 -92.47277 33131 ft 463 kts 56°
2026-05-07 14:12 69.91823 -92.32191 33140 ft 466 kts 56°
2026-05-07 14:13 69.95702 -92.16985 33142 ft 469 kts 57°
2026-05-07 14:13 69.99565 -92.01735 33123 ft 470 kts 58°
2026-05-07 14:14 70.03117 -91.86194 33138 ft 468 kts 61°
2026-05-07 14:14 70.06592 -91.70014 33138 ft 468 kts 62°
2026-05-07 14:15 70.10043 -91.53819 33134 ft 468 kts 62°
2026-05-07 14:15 70.13475 -91.37714 33133 ft 467 kts 62°
2026-05-07 14:16 70.16909 -91.21549 33127 ft 466 kts 62°
2026-05-07 14:16 70.20343 -91.05268 33095 ft 466 kts 62°
2026-05-07 14:17 70.23685 -90.89304 33130 ft 466 kts 62°
2026-05-07 14:17 70.27062 -90.73043 33124 ft 468 kts 62°
2026-05-07 14:18 70.30451 -90.56601 33121 ft 469 kts 62°
2026-05-07 14:18 70.33827 -90.40094 33114 ft 470 kts 62°
2026-05-07 14:19 70.37211 -90.23421 33117 ft 470 kts 63°
2026-05-07 14:19 70.40556 -90.06807 33116 ft 469 kts 63°
2026-05-07 14:20 70.43831 -89.90417 33111 ft 468 kts 63°
2026-05-07 14:20 70.47145 -89.73707 33105 ft 466 kts 63°
2026-05-07 14:21 70.50429 -89.57005 33113 ft 464 kts 63°
2026-05-07 14:21 70.53669 -89.40403 33114 ft 463 kts 63°
2026-05-07 14:22 70.56924 -89.23572 33111 ft 471 kts 63°
2026-05-07 14:22 70.60221 -89.06397 33105 ft 473 kts 63°
2026-05-07 14:23 70.63407 -88.89683 33109 ft 472 kts 63°
2026-05-07 14:23 70.66660 -88.72477 33107 ft 471 kts 64°
2026-05-07 14:24 70.69892 -88.55229 33101 ft 471 kts 64°
2026-05-07 14:24 70.73106 -88.37939 33106 ft 470 kts 64°
2026-05-07 14:25 70.76280 -88.20719 33118 ft 470 kts 64°
2026-05-07 14:25 70.79443 -88.03418 33112 ft 470 kts 64°
2026-05-07 14:26 70.81990 -87.89380 33111 ft 470 kts 64°
2026-05-07 14:26 70.85132 -87.71936 33102 ft 469 kts 64°
2026-05-07 14:27 70.88255 -87.54441 33115 ft 470 kts 64°
2026-05-07 14:27 70.91381 -87.36780 33119 ft 474 kts 64°
2026-05-07 14:28 70.94510 -87.18958 33119 ft 477 kts 64°
2026-05-07 14:28 70.97638 -87.00984 33114 ft 479 kts 65°
2026-05-07 14:29 71.00667 -86.83435 33112 ft 479 kts 65°
2026-05-07 14:29 71.03767 -86.65316 33112 ft 478 kts 65°
2026-05-07 14:30 71.06836 -86.47216 33114 ft 475 kts 65°
2026-05-07 14:30 71.09871 -86.29159 33114 ft 473 kts 65°
2026-05-07 14:31 71.12877 -86.11110 33124 ft 472 kts 65°
2026-05-07 14:31 71.15783 -85.93506 33109 ft 472 kts 65°
2026-05-07 14:32 71.18744 -85.75418 33114 ft 471 kts 66°
2026-05-07 14:32 71.21689 -85.57264 33117 ft 472 kts 66°
2026-05-07 14:33 71.24619 -85.39036 33112 ft 472 kts 66°
2026-05-07 14:33 71.27538 -85.20711 33116 ft 472 kts 66°
2026-05-07 14:34 71.30423 -85.02437 33113 ft 473 kts 66°
2026-05-07 14:34 71.33252 -84.84354 33112 ft 473 kts 66°
2026-05-07 14:35 71.36119 -84.65860 33112 ft 473 kts 66°
2026-05-07 14:35 71.38969 -84.47298 33105 ft 473 kts 67°
2026-05-07 14:36 71.41800 -84.28692 33104 ft 472 kts 67°
2026-05-07 14:36 71.44604 -84.10089 33107 ft 471 kts 67°
2026-05-07 14:37 71.47319 -83.91905 33079 ft 472 kts 67°
2026-05-07 14:37 71.51482 -83.63687 33105 ft 476 kts 67°
2026-05-07 14:38 71.54244 -83.44748 33118 ft 478 kts 67°
2026-05-07 14:38 71.57008 -83.25603 33106 ft 479 kts 68°
2026-05-07 14:39 71.59760 -83.06355 33108 ft 479 kts 68°
2026-05-07 14:39 71.62415 -82.87605 33110 ft 477 kts 68°
2026-05-07 14:40 71.65111 -82.68379 33112 ft 476 kts 68°
2026-05-07 14:40 71.67777 -82.49166 33107 ft 474 kts 68°
2026-05-07 14:41 71.70419 -82.29935 33118 ft 473 kts 68°
2026-05-07 14:41 71.73022 -82.10793 33118 ft 473 kts 68°
2026-05-07 14:42 71.75575 -81.91832 33117 ft 478 kts 68°
2026-05-07 14:42 71.78205 -81.72092 33130 ft 484 kts 68°
2026-05-07 14:43 71.80819 -81.52285 33119 ft 481 kts 69°
2026-05-07 14:43 71.83393 -81.32569 33123 ft 479 kts 69°
2026-05-07 14:44 71.85926 -81.12951 33127 ft 478 kts 69°
2026-05-07 14:44 71.88406 -80.93546 33124 ft 479 kts 69°
2026-05-07 14:45 71.90919 -80.73666 33135 ft 479 kts 69°
2026-05-07 14:45 71.93397 -80.53858 33134 ft 480 kts 69°
2026-05-07 14:46 71.95871 -80.33866 33126 ft 480 kts 70°
2026-05-07 14:46 71.98324 -80.13848 33132 ft 479 kts 70°
2026-05-07 14:47 72.00587 -79.94065 33146 ft 479 kts 75°
2026-05-07 14:47 72.02399 -79.73238 33168 ft 483 kts 76°
2026-05-07 14:48 72.04146 -79.52248 33162 ft 487 kts 76°
2026-05-07 14:48 72.05919 -79.30936 33157 ft 489 kts 76°
2026-05-07 14:49 72.07687 -79.09626 33152 ft 488 kts 76°
2026-05-07 14:49 72.09386 -78.88922 33153 ft 485 kts 76°
2026-05-07 14:50 72.11099 -78.67708 33155 ft 483 kts 76°
2026-05-07 14:50 72.12781 -78.46546 33129 ft 482 kts 76°
2026-05-07 14:51 72.14423 -78.25561 33132 ft 481 kts 77°
2026-05-07 14:51 72.16052 -78.04402 33140 ft 481 kts 77°
2026-05-07 14:52 72.17627 -77.83648 33120 ft 481 kts 77°
2026-05-07 14:52 72.19210 -77.62436 33133 ft 481 kts 78°
2026-05-07 14:53 72.20773 -77.41151 33113 ft 482 kts 77°
2026-05-07 14:53 72.22318 -77.19753 33128 ft 491 kts 77°
2026-05-07 14:54 72.23837 -76.98352 33151 ft 492 kts 78°
2026-05-07 14:54 72.25363 -76.76497 33175 ft 492 kts 78°
2026-05-07 14:55 72.26863 -76.54631 33178 ft 490 kts 78°
2026-05-07 14:55 72.28338 -76.32740 33208 ft 490 kts 78°
2026-05-07 14:56 72.29775 -76.11013 33207 ft 489 kts 78°
2026-05-07 14:56 72.31167 -75.89591 33236 ft 489 kts 79°
2026-05-07 14:57 72.32566 -75.67654 33237 ft 489 kts 79°
2026-05-07 14:57 72.33940 -75.45690 33240 ft 490 kts 79°
2026-05-07 14:58 72.35289 -75.23702 33248 ft 489 kts 79°
2026-05-07 14:58 72.36606 -75.01812 33247 ft 489 kts 79°
2026-05-07 14:59 72.37877 -74.80255 33249 ft 490 kts 79°
2026-05-07 14:59 72.39161 -74.58049 33261 ft 494 kts 79°
2026-05-07 15:00 72.40431 -74.35614 33258 ft 498 kts 80°
2026-05-07 15:00 72.41674 -74.13176 33255 ft 500 kts 80°
2026-05-07 15:01 72.42875 -73.91013 33247 ft 499 kts 80°
2026-05-07 15:01 72.44076 -73.68372 33235 ft 497 kts 80°
2026-05-07 15:02 72.45243 -73.45838 33236 ft 495 kts 81°
2026-05-07 15:02 72.46380 -73.23370 33233 ft 493 kts 81°
2026-05-07 15:03 72.47488 -73.00947 33234 ft 493 kts 81°
2026-05-07 15:03 72.48547 -72.78992 33220 ft 493 kts 81°
2026-05-07 15:04 72.49606 -72.56503 33227 ft 492 kts 81°
2026-05-07 15:04 72.50638 -72.34013 33225 ft 492 kts 82°
2026-05-07 15:05 72.51647 -72.11451 33216 ft 494 kts 82°
2026-05-07 15:05 72.52619 -71.89141 33230 ft 499 kts 82°
2026-05-07 15:06 72.53594 -71.66133 33226 ft 503 kts 82°
2026-05-07 15:06 72.54547 -71.43006 33217 ft 505 kts 82°
2026-05-07 15:07 72.55466 -71.19996 33215 ft 503 kts 82°
2026-05-07 15:07 72.56347 -70.97308 33209 ft 501 kts 83°
2026-05-07 15:08 72.57216 -70.74205 33211 ft 499 kts 83°
2026-05-07 15:08 72.58048 -70.51395 33208 ft 498 kts 83°
2026-05-07 15:09 72.58857 -70.28435 33209 ft 498 kts 83°
2026-05-07 15:09 72.59640 -70.05469 33203 ft 498 kts 83°
2026-05-07 15:10 72.60383 -69.82913 33208 ft 498 kts 83°
2026-05-07 15:10 72.61117 -69.59835 33207 ft 498 kts 84°
2026-05-07 15:11 72.61823 -69.36724 33203 ft 502 kts 84°
2026-05-07 15:11 72.62510 -69.13387 33214 ft 507 kts 84°
2026-05-07 15:12 72.63053 -68.94244 33205 ft 509 kts 84°
2026-05-07 15:12 72.63801 -68.66708 33197 ft 511 kts 84°
2026-05-07 15:13 72.64316 -68.46872 33197 ft 509 kts 84°
2026-05-07 15:13 72.64898 -68.23507 33197 ft 507 kts 85°
2026-05-07 15:14 72.65458 -67.99953 33199 ft 505 kts 85°
2026-05-07 15:14 72.65985 -67.76907 33198 ft 504 kts 84°
2026-05-07 15:15 72.67090 -67.53941 33205 ft 502 kts 77°
2026-05-07 15:15 72.68576 -67.30917 33201 ft 503 kts 77°
2026-05-07 15:16 72.70037 -67.07881 33196 ft 503 kts 77°
2026-05-07 15:16 72.71414 -66.85247 33197 ft 507 kts 77°
2026-05-07 15:17 72.72777 -66.62081 33204 ft 511 kts 78°
2026-05-07 15:17 72.74132 -66.38513 33205 ft 513 kts 78°
2026-05-07 15:18 72.75465 -66.14834 33197 ft 515 kts 78°
2026-05-07 15:18 72.76746 -65.91598 33193 ft 514 kts 78°
2026-05-07 15:19 72.78021 -65.67934 33194 ft 512 kts 78°
2026-05-07 15:19 72.79266 -65.44280 33194 ft 511 kts 79°
2026-05-07 15:20 72.80473 -65.20802 33194 ft 509 kts 79°
2026-05-07 15:20 72.81637 -64.97615 33194 ft 509 kts 79°
2026-05-07 15:21 72.82799 -64.73885 33199 ft 512 kts 79°
2026-05-07 15:21 72.83936 -64.50094 33204 ft 516 kts 79°
2026-05-07 15:22 72.85057 -64.26010 33197 ft 519 kts 79°
2026-05-07 15:22 72.86152 -64.01792 33194 ft 519 kts 79°
2026-05-07 15:23 72.87196 -63.78086 33194 ft 518 kts 80°
2026-05-07 15:23 72.88230 -63.53915 33194 ft 517 kts 80°
2026-05-07 15:24 72.89234 -63.29745 33195 ft 516 kts 80°
2026-05-07 15:24 72.90202 -63.05744 33197 ft 515 kts 81°
2026-05-07 15:25 72.91124 -62.82205 33199 ft 515 kts 81°
2026-05-07 15:25 72.92036 -62.58159 33196 ft 515 kts 81°
2026-05-07 15:26 72.92924 -62.33961 33197 ft 515 kts 81°
2026-05-07 15:26 72.93783 -62.09736 33196 ft 515 kts 82°
2026-05-07 15:27 72.94597 -61.85993 33193 ft 516 kts 82°
2026-05-07 15:27 72.95396 -61.61841 33193 ft 516 kts 82°
2026-05-07 15:28 72.96171 -61.37514 33184 ft 516 kts 82°
2026-05-07 15:28 72.96917 -61.13169 33188 ft 516 kts 82°
2026-05-07 15:29 72.97619 -60.89339 33186 ft 516 kts 83°
2026-05-07 15:29 72.98303 -60.65112 33208 ft 516 kts 83°
2026-05-07 15:30 72.98968 -60.40544 33195 ft 520 kts 83°
2026-05-07 15:30 72.99608 -60.15929 33193 ft 524 kts 83°
2026-05-07 15:31 73.00076 -59.91713 33184 ft 527 kts 88°
2026-05-07 15:31 73.00076 -59.66619 33185 ft 527 kts 89°
2026-05-07 15:32 72.99992 -59.41618 33182 ft 526 kts 89°
2026-05-07 15:32 72.99904 -59.16665 33180 ft 524 kts 89°
2026-05-07 15:33 72.99813 -58.92389 33185 ft 523 kts 89°
2026-05-07 15:33 72.99697 -58.67535 33187 ft 522 kts 89°
2026-05-07 15:34 72.99549 -58.42798 33171 ft 522 kts 89°
2026-05-07 15:34 72.99370 -58.18016 33215 ft 522 kts 89°
2026-05-07 15:35 72.99165 -57.93652 33189 ft 526 kts 90°
2026-05-07 15:35 72.98923 -57.68559 33178 ft 530 kts 90°
2026-05-07 15:36 72.98647 -57.43317 33175 ft 532 kts 90°
2026-05-07 15:36 72.98341 -57.18166 33162 ft 533 kts 90°
2026-05-07 15:37 72.98010 -56.93432 33155 ft 532 kts 91°
2026-05-07 15:37 72.97643 -56.68282 33153 ft 529 kts 91°
2026-05-07 15:38 72.97247 -56.43217 33158 ft 527 kts 91°
2026-05-07 15:38 72.96824 -56.18466 33161 ft 525 kts 91°
2026-05-07 15:39 72.96381 -55.94120 33154 ft 525 kts 92°
2026-05-07 15:39 72.95897 -55.69229 33208 ft 527 kts 92°
2026-05-07 15:40 72.95376 -55.43962 33160 ft 538 kts 92°
2026-05-07 15:40 72.94822 -55.18769 33139 ft 535 kts 92°
2026-05-07 15:41 72.94250 -54.94150 33148 ft 532 kts 92°
2026-05-07 15:41 72.93636 -54.69027 33152 ft 531 kts 93°
2026-05-07 15:42 72.92993 -54.43939 33145 ft 532 kts 93°
2026-05-07 15:42 72.92317 -54.18800 33163 ft 534 kts 93°
2026-05-07 15:43 72.91626 -53.94255 33141 ft 536 kts 93°
2026-05-07 15:43 72.90885 -53.69021 33139 ft 536 kts 94°
2026-05-07 15:44 72.90111 -53.43788 33130 ft 536 kts 94°
2026-05-07 15:44 72.89305 -53.18543 33159 ft 538 kts 94°
2026-05-07 15:45 72.88489 -52.93933 33139 ft 542 kts 94°
2026-05-07 15:45 72.87613 -52.68477 33140 ft 544 kts 94°
2026-05-07 15:46 72.86234 -52.30237 33142 ft 543 kts 95°
2026-05-07 15:47 72.85277 -52.04852 33145 ft 542 kts 95°
2026-05-07 15:47 72.84316 -51.80159 33143 ft 541 kts 95°
2026-05-07 15:48 72.83309 -51.55091 33137 ft 540 kts 95°
2026-05-07 15:48 72.82264 -51.29914 33149 ft 540 kts 96°
2026-05-07 15:49 72.81188 -51.04773 33136 ft 538 kts 96°
2026-05-07 15:49 72.80111 -50.80304 33207 ft 538 kts 96°
2026-05-07 15:50 72.78973 -50.55150 33149 ft 544 kts 96°
2026-05-07 15:50 72.77792 -50.29837 33153 ft 547 kts 96°
2026-05-07 15:51 72.76581 -50.04578 33142 ft 549 kts 97°
2026-05-07 15:51 72.75356 -49.79707 33145 ft 550 kts 97°
2026-05-07 15:52 72.74073 -49.54350 33147 ft 548 kts 97°
2026-05-07 15:52 72.72765 -49.29145 33146 ft 546 kts 97°
2026-05-07 15:53 72.71437 -49.04198 33144 ft 544 kts 97°
2026-05-07 15:53 72.70106 -48.79767 33141 ft 543 kts 98°
2026-05-07 15:54 72.68714 -48.54816 33139 ft 543 kts 98°
2026-05-07 15:54 72.67292 -48.29905 33163 ft 547 kts 98°
2026-05-07 15:55 72.65822 -48.04757 33160 ft 551 kts 98°
2026-05-07 15:55 72.64354 -47.80202 33161 ft 554 kts 98°
2026-05-07 15:56 72.62806 -47.54896 33151 ft 555 kts 99°
2026-05-07 15:56 72.61222 -47.29576 33151 ft 555 kts 99°
2026-05-07 15:57 72.59610 -47.04355 33150 ft 553 kts 99°
2026-05-07 15:57 72.58021 -46.80002 33151 ft 551 kts 99°
2026-05-07 15:58 72.56360 -46.55047 33152 ft 549 kts 99°
2026-05-07 15:58 72.54674 -46.30223 33156 ft 548 kts 100°
2026-05-07 15:59 72.52960 -46.05490 33233 ft 548 kts 100°
2026-05-07 15:59 72.51257 -45.81370 33165 ft 553 kts 100°
2026-05-07 16:00 72.49458 -45.56403 33155 ft 555 kts 100°
2026-05-07 16:00 72.47630 -45.31508 33170 ft 555 kts 101°
2026-05-07 16:01 72.46085 -45.10832 33166 ft 555 kts 101°
2026-05-07 16:01 72.44239 -44.86545 33169 ft 555 kts 101°
2026-05-07 16:02 72.42325 -44.61807 33168 ft 554 kts 101°
2026-05-07 16:02 72.40382 -44.37134 33160 ft 554 kts 101°
2026-05-07 16:03 72.38412 -44.12566 33171 ft 552 kts 101°
2026-05-07 16:03 72.36454 -43.88566 33168 ft 551 kts 102°
2026-05-07 16:04 72.34445 -43.64346 33228 ft 552 kts 102°
2026-05-07 16:04 72.32384 -43.39919 33181 ft 553 kts 102°
2026-05-07 16:05 72.30296 -43.15594 33183 ft 554 kts 102°
2026-05-07 16:05 72.28222 -42.91816 33185 ft 554 kts 102°
2026-05-07 16:06 72.26089 -42.67747 33188 ft 554 kts 102°
2026-05-07 16:06 72.23908 -42.43538 33189 ft 553 kts 103°
2026-05-07 16:07 72.21697 -42.19380 33197 ft 554 kts 103°
2026-05-07 16:07 72.19503 -41.95772 33198 ft 553 kts 103°
2026-05-07 16:08 72.17233 -41.71717 33192 ft 554 kts 103°
2026-05-07 16:08 72.14955 -41.47946 33275 ft 553 kts 103°
2026-05-07 16:09 72.12624 -41.23980 33207 ft 553 kts 103°
2026-05-07 16:09 72.10289 -41.00339 33212 ft 552 kts 104°
2026-05-07 16:10 72.07967 -40.77164 33210 ft 551 kts 104°
2026-05-07 16:10 72.05565 -40.53521 33227 ft 550 kts 104°
2026-05-07 16:11 72.03144 -40.30026 33234 ft 549 kts 104°
2026-05-07 16:11 72.00696 -40.06590 33246 ft 549 kts 105°
2026-05-07 16:12 71.97688 -39.84380 33237 ft 554 kts 114°
2026-05-07 16:12 71.94144 -39.62456 33253 ft 554 kts 114°
2026-05-07 16:13 71.90561 -39.40436 33250 ft 554 kts 114°
2026-05-07 16:13 71.86992 -39.18425 33257 ft 554 kts 114°
2026-05-07 16:14 71.83526 -38.97141 33273 ft 554 kts 114°
2026-05-07 16:14 71.79933 -38.75305 33255 ft 554 kts 114°
2026-05-07 16:15 71.76309 -38.53549 33249 ft 554 kts 115°
2026-05-07 16:15 71.72667 -38.31922 33256 ft 554 kts 115°
2026-05-07 16:16 71.69014 -38.10454 33267 ft 553 kts 115°
2026-05-07 16:16 71.65402 -37.89446 33263 ft 553 kts 115°
2026-05-07 16:17 71.61684 -37.68044 33261 ft 552 kts 115°
2026-05-07 16:17 71.57956 -37.46798 33256 ft 552 kts 115°
2026-05-07 16:18 71.54222 -37.25736 33264 ft 551 kts 115°
2026-05-07 16:18 71.50451 -37.04682 33267 ft 551 kts 115°
2026-05-07 16:19 71.46735 -36.84137 33257 ft 551 kts 115°
2026-05-07 16:19 71.42939 -36.63359 33257 ft 550 kts 116°
2026-05-07 16:20 71.39083 -36.42461 33310 ft 550 kts 116°
2026-05-07 16:20 71.35256 -36.21926 33268 ft 549 kts 116°
2026-05-07 16:21 71.31388 -36.01371 33259 ft 548 kts 116°
2026-05-07 16:21 71.27592 -35.81387 33254 ft 547 kts 116°
2026-05-07 16:22 71.23695 -35.61070 33256 ft 546 kts 117°
2026-05-07 16:22 71.19777 -35.40840 33270 ft 547 kts 117°
2026-05-07 16:23 71.15836 -35.20680 33270 ft 547 kts 117°
2026-05-07 16:23 71.11864 -35.00557 33267 ft 548 kts 117°
2026-05-07 16:24 71.07999 -34.81151 33272 ft 547 kts 117°
2026-05-07 16:24 71.03987 -34.61212 33270 ft 547 kts 117°
2026-05-07 16:25 70.99961 -34.41388 33280 ft 546 kts 117°
2026-05-07 16:25 70.95945 -34.21786 33289 ft 546 kts 118°
2026-05-07 16:26 70.91880 -34.02125 33298 ft 546 kts 117°
2026-05-07 16:26 70.87897 -33.83045 33318 ft 545 kts 118°
2026-05-07 16:27 70.83813 -33.63649 33293 ft 542 kts 118°
2026-05-07 16:27 70.79727 -33.44416 33303 ft 540 kts 118°
2026-05-07 16:28 70.75654 -33.25414 33313 ft 539 kts 119°
2026-05-07 16:28 70.71547 -33.06427 33312 ft 539 kts 119°
2026-05-07 16:29 70.67509 -32.87911 33320 ft 539 kts 119°
2026-05-07 16:29 70.63359 -32.69059 33314 ft 539 kts 119°
2026-05-07 16:30 70.59190 -32.50286 33318 ft 540 kts 120°
2026-05-07 16:30 70.54990 -32.31539 33318 ft 540 kts 120°
2026-05-07 16:31 70.50804 -32.13013 33305 ft 540 kts 120°
2026-05-07 16:31 70.46656 -31.94806 33312 ft 540 kts 120°
2026-05-07 16:32 70.42402 -31.76300 33279 ft 539 kts 120°
2026-05-07 16:32 70.38167 -31.58038 33301 ft 539 kts 120°
2026-05-07 16:33 70.33901 -31.39803 33270 ft 536 kts 121°
2026-05-07 16:33 70.29643 -31.21736 33255 ft 532 kts 121°
2026-05-07 16:34 70.25388 -31.03836 33246 ft 529 kts 121°
2026-05-07 16:34 70.21247 -30.86558 33258 ft 527 kts 121°
2026-05-07 16:35 70.16989 -30.68933 33275 ft 528 kts 121°
2026-05-07 16:35 70.12707 -30.51351 33302 ft 529 kts 121°
2026-05-07 16:36 70.08398 -30.33802 33330 ft 530 kts 122°
2026-05-07 16:36 70.04058 -30.16257 33321 ft 531 kts 122°
2026-05-07 16:37 69.99644 -29.99494 33334 ft 534 kts 128°
2026-05-07 16:37 69.94286 -29.84597 33335 ft 537 kts 136°
2026-05-07 16:38 69.88652 -29.70198 33315 ft 536 kts 136°
2026-05-07 16:38 69.83102 -29.55932 33288 ft 535 kts 135°
2026-05-07 16:39 69.77537 -29.41602 33283 ft 535 kts 135°
2026-05-07 16:39 69.71971 -29.27342 33272 ft 534 kts 135°
2026-05-07 16:40 69.66405 -29.13196 33265 ft 533 kts 135°
2026-05-07 16:40 69.60975 -28.99504 33267 ft 532 kts 136°
2026-05-07 16:41 69.55400 -28.85548 33320 ft 532 kts 136°
2026-05-07 16:41 69.49815 -28.71677 33272 ft 530 kts 136°
2026-05-07 16:42 69.44284 -28.58038 33271 ft 527 kts 136°
2026-05-07 16:42 69.38747 -28.44470 33284 ft 525 kts 136°
2026-05-07 16:43 69.33208 -28.30993 33292 ft 524 kts 136°
2026-05-07 16:43 69.27653 -28.17570 33299 ft 525 kts 137°
2026-05-07 16:44 69.22072 -28.04181 33286 ft 527 kts 137°
2026-05-07 16:44 69.16612 -27.91168 33284 ft 529 kts 137°
2026-05-07 16:45 69.10977 -27.77830 33283 ft 530 kts 137°
2026-05-07 16:45 69.05312 -27.64536 33306 ft 531 kts 137°
2026-05-07 16:46 68.99651 -27.51332 33294 ft 530 kts 138°
2026-05-07 16:46 68.94016 -27.38269 33309 ft 530 kts 138°
2026-05-07 16:47 68.88332 -27.25190 33314 ft 530 kts 138°
2026-05-07 16:47 68.82627 -27.12181 33331 ft 530 kts 138°
2026-05-07 16:48 68.77051 -26.99502 33332 ft 529 kts 138°
2026-05-07 16:48 68.71394 -26.86725 33349 ft 529 kts 138°
2026-05-07 16:49 68.65688 -26.73962 33334 ft 528 kts 138°
2026-05-07 16:49 68.59973 -26.61256 33339 ft 528 kts 139°
2026-05-07 16:50 68.54261 -26.48635 33323 ft 528 kts 139°
2026-05-07 16:50 68.48564 -26.36133 33338 ft 528 kts 139°
2026-05-07 16:51 68.43789 -26.25719 33330 ft 528 kts 139°
2026-05-07 16:51 68.38058 -26.13296 33336 ft 527 kts 139°
2026-05-07 16:52 68.32318 -26.00937 33338 ft 526 kts 139°
2026-05-07 16:52 68.26691 -25.88897 33333 ft 526 kts 139°
2026-05-07 16:53 68.20962 -25.76720 33344 ft 526 kts 139°
2026-05-07 16:53 68.15188 -25.64529 33338 ft 525 kts 139°
2026-05-07 16:54 68.09433 -25.52458 33370 ft 524 kts 140°
2026-05-07 16:54 68.03716 -25.40545 33334 ft 523 kts 140°
2026-05-07 16:55 67.98035 -25.28784 33328 ft 521 kts 140°
2026-05-07 16:55 67.92300 -25.16982 33345 ft 519 kts 140°
2026-05-07 16:56 67.86626 -25.05381 33331 ft 518 kts 140°
2026-05-07 16:56 67.78175 -24.88238 33335 ft 517 kts 141°
2026-05-07 16:57 67.72440 -24.76695 33334 ft 518 kts 141°
2026-05-07 16:57 67.66722 -24.65259 33349 ft 519 kts 141°
2026-05-07 16:58 67.60960 -24.53807 33337 ft 519 kts 141°
2026-05-07 16:58 67.55201 -24.42433 33335 ft 518 kts 141°
2026-05-07 16:59 67.49419 -24.31085 33334 ft 518 kts 141°
2026-05-07 16:59 67.43680 -24.19891 33334 ft 518 kts 141°
2026-05-07 17:00 67.37895 -24.08675 33346 ft 518 kts 141°
2026-05-07 17:00 67.32248 -23.97795 33337 ft 518 kts 141°
2026-05-07 17:01 67.26458 -23.86706 33334 ft 517 kts 142°
2026-05-07 17:01 67.20685 -23.75719 33336 ft 517 kts 142°
2026-05-07 17:02 67.14915 -23.64804 33339 ft 517 kts 142°
2026-05-07 17:02 67.09111 -23.53890 33342 ft 516 kts 142°
2026-05-07 17:03 67.03289 -23.43009 33333 ft 516 kts 142°
2026-05-07 17:03 66.97494 -23.32244 33335 ft 516 kts 142°
2026-05-07 17:04 66.91667 -23.21485 33331 ft 516 kts 142°
2026-05-07 17:04 66.85876 -23.10855 33331 ft 516 kts 142°
2026-05-07 17:05 66.80041 -23.00210 33334 ft 516 kts 142°
2026-05-07 17:05 66.74314 -22.89821 33327 ft 516 kts 142°
2026-05-07 17:06 66.68471 -22.79286 33329 ft 516 kts 143°
2026-05-07 17:06 66.62659 -22.68869 33329 ft 515 kts 143°
2026-05-07 17:07 66.56800 -22.58431 33338 ft 515 kts 143°
2026-05-07 17:07 66.50949 -22.48065 33314 ft 514 kts 143°
2026-05-07 17:08 66.45098 -22.37760 33331 ft 513 kts 143°
2026-05-07 17:08 66.39280 -22.27573 33331 ft 513 kts 143°
2026-05-07 17:09 66.33430 -22.17390 33327 ft 512 kts 143°
2026-05-07 17:09 66.27578 -22.07261 33307 ft 512 kts 143°
2026-05-07 17:10 66.21847 -21.97399 33306 ft 513 kts 143°
2026-05-07 17:10 66.15974 -21.87349 33306 ft 514 kts 143°
2026-05-07 17:11 66.10113 -21.77378 33327 ft 514 kts 144°
2026-05-07 17:11 66.04211 -21.67394 33322 ft 514 kts 144°
2026-05-07 17:12 65.98319 -21.57485 33302 ft 514 kts 144°
2026-05-07 17:12 65.92409 -21.47601 33323 ft 513 kts 144°
2026-05-07 17:13 65.86531 -21.37826 33293 ft 513 kts 144°
2026-05-07 17:13 65.80621 -21.28054 33300 ft 513 kts 144°
2026-05-07 17:14 65.74700 -21.18318 33313 ft 512 kts 144°
2026-05-07 17:14 65.68781 -21.08641 33295 ft 513 kts 144°
2026-05-07 17:15 65.62980 -20.99208 33294 ft 513 kts 144°
2026-05-07 17:15 65.57052 -20.89622 33290 ft 513 kts 144°
2026-05-07 17:16 65.51144 -20.80121 33289 ft 513 kts 144°
2026-05-07 17:16 65.45195 -20.70607 33277 ft 513 kts 145°
2026-05-07 17:17 65.39238 -20.61135 33273 ft 512 kts 145°
2026-05-07 17:17 65.33285 -20.51717 33263 ft 512 kts 145°
2026-05-07 17:18 65.27341 -20.42368 33264 ft 511 kts 145°
2026-05-07 17:18 65.21380 -20.33044 33256 ft 511 kts 145°
2026-05-07 17:19 65.15423 -20.23773 33257 ft 511 kts 146°
2026-05-07 17:19 65.09493 -20.14594 33262 ft 511 kts 146°
2026-05-07 17:20 65.03526 -20.05405 33243 ft 510 kts 146°
2026-05-07 17:20 64.97935 -19.95852 33237 ft 508 kts 137°
2026-05-07 17:21 64.92757 -19.84545 33238 ft 507 kts 135°
2026-05-07 17:21 64.87575 -19.73260 33225 ft 507 kts 136°
2026-05-07 17:22 64.82395 -19.62137 33225 ft 508 kts 136°
2026-05-07 17:22 64.77152 -19.50991 33228 ft 508 kts 136°
2026-05-07 17:23 64.71891 -19.39875 33224 ft 509 kts 136°
2026-05-07 17:23 64.66626 -19.28808 33234 ft 509 kts 136°
2026-05-07 17:24 64.61503 -19.18093 33213 ft 509 kts 136°
2026-05-07 17:24 64.56229 -19.07121 33217 ft 509 kts 136°
2026-05-07 17:25 64.51018 -18.96336 33211 ft 508 kts 137°
2026-05-07 17:25 64.45730 -18.85453 33217 ft 507 kts 137°
2026-05-07 17:26 64.40441 -18.74623 33202 ft 508 kts 137°
2026-05-07 17:26 64.35132 -18.63813 33196 ft 508 kts 137°
2026-05-07 17:27 64.29820 -18.53053 33201 ft 508 kts 137°
2026-05-07 17:27 64.24502 -18.42341 33182 ft 508 kts 137°
2026-05-07 17:28 64.19175 -18.31668 33170 ft 508 kts 137°
2026-05-07 17:28 64.13884 -18.21106 33186 ft 506 kts 138°
2026-05-07 17:29 64.08556 -18.10554 33157 ft 505 kts 138°
2026-05-07 17:29 64.03237 -18.00086 33157 ft 504 kts 138°
2026-05-07 17:30 63.98075 -17.89964 33152 ft 504 kts 138°
2026-05-07 17:30 63.92756 -17.79554 33154 ft 504 kts 138°
2026-05-07 17:31 63.87414 -17.69169 33150 ft 504 kts 139°
2026-05-07 17:31 63.82081 -17.58872 33139 ft 502 kts 139°
2026-05-07 17:32 63.76809 -17.48731 33139 ft 501 kts 139°
2026-05-07 17:32 63.72378 -17.40252 33137 ft 500 kts 139°
2026-05-07 17:33 63.66166 -17.28426 33135 ft 499 kts 139°
2026-05-07 17:33 63.60876 -17.18412 33133 ft 499 kts 140°
2026-05-07 17:34 63.55517 -17.08325 33133 ft 504 kts 140°
2026-05-07 17:34 63.50251 -16.98452 33136 ft 509 kts 140°
2026-05-07 17:35 63.44772 -16.88232 33127 ft 514 kts 140°
2026-05-07 17:35 63.39259 -16.78003 33121 ft 515 kts 140°
2026-05-07 17:36 63.33810 -16.67945 33102 ft 502 kts 140°
2026-05-07 17:36 63.28454 -16.58110 33117 ft 500 kts 140°
2026-05-07 17:37 63.23044 -16.48228 33109 ft 507 kts 140°
2026-05-07 17:37 63.17559 -16.38255 33110 ft 511 kts 140°
2026-05-07 17:38 63.12157 -16.28480 33085 ft 498 kts 140°
2026-05-07 17:38 63.06791 -16.18823 33106 ft 498 kts 140°
2026-05-07 17:39 63.02280 -16.10741 33084 ft 499 kts 140°
2026-05-07 17:39 62.96906 -16.01153 33081 ft 500 kts 141°
2026-05-07 17:40 62.91561 -15.91666 33070 ft 502 kts 141°
2026-05-07 17:40 62.86118 -15.82046 33074 ft 502 kts 141°
2026-05-07 17:41 62.80711 -15.72543 33040 ft 501 kts 141°
2026-05-07 17:41 62.75279 -15.63044 33071 ft 499 kts 141°
2026-05-07 17:42 62.69886 -15.53656 33034 ft 499 kts 141°
2026-05-07 17:42 62.64404 -15.44158 33027 ft 500 kts 141°
2026-05-07 17:43 62.58954 -15.34761 33033 ft 499 kts 141°
2026-05-07 17:43 62.53512 -15.25421 32991 ft 499 kts 141°
2026-05-07 17:44 62.48070 -15.16130 33015 ft 498 kts 141°
2026-05-07 17:44 62.42618 -15.06863 32999 ft 498 kts 142°
2026-05-07 17:45 62.37289 -14.97849 32998 ft 497 kts 142°
2026-05-07 17:45 62.31846 -14.88685 32980 ft 496 kts 142°
2026-05-07 17:46 62.26395 -14.79552 32984 ft 496 kts 142°
2026-05-07 17:46 62.20928 -14.70434 32969 ft 497 kts 142°
2026-05-07 17:47 62.15489 -14.61405 32967 ft 497 kts 142°
2026-05-07 17:47 62.10017 -14.52365 32924 ft 497 kts 142°
2026-05-07 17:48 62.04536 -14.43352 32948 ft 496 kts 142°
2026-05-07 17:48 61.99107 -14.34466 32923 ft 496 kts 142°
2026-05-07 17:49 61.93623 -14.25530 32925 ft 496 kts 142°
2026-05-07 17:49 61.88146 -14.16647 32914 ft 495 kts 142°
2026-05-07 17:50 61.82664 -14.07799 32903 ft 496 kts 143°
2026-05-07 17:50 61.77277 -13.99141 32878 ft 496 kts 143°
2026-05-07 17:51 61.71770 -13.90335 32882 ft 496 kts 143°
2026-05-07 17:51 61.66294 -13.81617 32869 ft 496 kts 143°
2026-05-07 17:52 61.60770 -13.72893 32864 ft 496 kts 143°
2026-05-07 17:52 61.55241 -13.64170 32838 ft 497 kts 143°
2026-05-07 17:53 61.49716 -13.55455 32827 ft 497 kts 143°
2026-05-07 17:53 61.44171 -13.46778 32805 ft 497 kts 144°
2026-05-07 17:54 61.38668 -13.38216 32790 ft 494 kts 144°
2026-05-07 17:54 61.33153 -13.29676 32785 ft 492 kts 144°
2026-05-07 17:55 61.27660 -13.21205 32750 ft 491 kts 144°
2026-05-07 17:55 61.22171 -13.12769 32744 ft 490 kts 145°
2026-05-07 17:56 61.16719 -13.04441 32745 ft 489 kts 144°
2026-05-07 17:56 61.11317 -12.96217 32750 ft 490 kts 145°
2026-05-07 17:57 61.06740 -12.89275 32738 ft 491 kts 145°
2026-05-07 17:57 61.00303 -12.79561 32725 ft 492 kts 146°
2026-05-07 17:58 60.94774 -12.71255 32684 ft 492 kts 145°
2026-05-07 17:58 60.89239 -12.62978 32676 ft 492 kts 146°
2026-05-07 17:59 60.83704 -12.54734 32662 ft 491 kts 145°
2026-05-07 17:59 60.78161 -12.46514 32664 ft 491 kts 146°
2026-05-07 18:00 60.72630 -12.38352 32637 ft 491 kts 146°
2026-05-07 18:00 60.67102 -12.30230 32623 ft 489 kts 146°
2026-05-07 18:01 60.61579 -12.22139 32609 ft 487 kts 147°
2026-05-07 18:01 60.56106 -12.14166 32606 ft 486 kts 146°
2026-05-07 18:02 60.47858 -12.02211 32590 ft 486 kts 147°
2026-05-07 18:03 60.42441 -11.94402 32588 ft 487 kts 147°
2026-05-07 18:03 60.36907 -11.86456 32583 ft 488 kts 147°
2026-05-07 18:04 60.31358 -11.78523 32577 ft 488 kts 147°
2026-05-07 18:04 60.25798 -11.70608 32577 ft 489 kts 147°
2026-05-07 18:05 60.20273 -11.62774 32560 ft 489 kts 147°
2026-05-07 18:05 60.14709 -11.54919 32569 ft 488 kts 147°
2026-05-07 18:06 60.09151 -11.47107 32568 ft 488 kts 147°
2026-05-07 18:06 60.03576 -11.39303 32565 ft 488 kts 147°
2026-05-07 18:07 59.98007 -11.31540 32562 ft 488 kts 147°
2026-05-07 18:07 59.92496 -11.23886 32549 ft 484 kts 149°
2026-05-07 18:08 59.86970 -11.16246 32563 ft 482 kts 149°
2026-05-07 18:08 59.81465 -11.08668 32568 ft 480 kts 149°
2026-05-07 18:09 59.75964 -11.01126 32568 ft 479 kts 149°
2026-05-07 18:09 59.70560 -10.93746 32545 ft 479 kts 149°
2026-05-07 18:10 59.65062 -10.86269 32562 ft 479 kts 149°
2026-05-07 18:10 59.59551 -10.78805 32566 ft 480 kts 149°
2026-05-07 18:11 59.54059 -10.71395 32571 ft 481 kts 149°
2026-05-07 18:11 59.48521 -10.63954 32568 ft 481 kts 149°
2026-05-07 18:12 59.42990 -10.56550 32551 ft 481 kts 150°
2026-05-07 18:12 59.37451 -10.49166 32554 ft 480 kts 150°
2026-05-07 18:13 59.31928 -10.41833 32568 ft 479 kts 150°
2026-05-07 18:13 59.26402 -10.34524 32571 ft 479 kts 150°
2026-05-07 18:14 59.20924 -10.27305 32567 ft 476 kts 151°
2026-05-07 18:14 59.15455 -10.20128 32562 ft 471 kts 152°
2026-05-07 18:15 59.10038 -10.13047 32572 ft 468 kts 152°
2026-05-07 18:15 59.04635 -10.06010 32580 ft 466 kts 151°
2026-05-07 18:16 58.99841 -9.97618 32582 ft 479 kts 136°
2026-05-07 18:16 58.96064 -9.86908 32588 ft 491 kts 124°
2026-05-07 18:17 58.92817 -9.75245 32573 ft 492 kts 124°
2026-05-07 18:17 58.89500 -9.63652 32611 ft 492 kts 126°
2026-05-07 18:18 58.85875 -9.52509 32568 ft 484 kts 134°
2026-05-07 18:18 58.81381 -9.43055 32588 ft 471 kts 145°
2026-05-07 18:19 58.76417 -9.34942 32616 ft 467 kts 147°
2026-05-07 18:19 58.71472 -9.26959 32614 ft 466 kts 147°
2026-05-07 18:20 58.66523 -9.18936 32617 ft 463 kts 147°
2026-05-07 18:20 58.61603 -9.10950 32617 ft 462 kts 147°
2026-05-07 18:21 58.56694 -9.03004 32635 ft 461 kts 147°
2026-05-07 18:21 58.51876 -8.95234 32632 ft 461 kts 147°
2026-05-07 18:22 58.46984 -8.87376 32641 ft 462 kts 147°
2026-05-07 18:22 58.42049 -8.79480 32641 ft 462 kts 147°
2026-05-07 18:23 58.37105 -8.71597 32636 ft 463 kts 147°
2026-05-07 18:23 58.32179 -8.63767 32656 ft 460 kts 148°
2026-05-07 18:24 58.27293 -8.56036 32666 ft 459 kts 148°
2026-05-07 18:24 58.22388 -8.48304 32665 ft 457 kts 148°
2026-05-07 18:25 58.17490 -8.40611 32662 ft 456 kts 148°
2026-05-07 18:25 58.12598 -8.32958 32674 ft 456 kts 148°
2026-05-07 18:26 58.08530 -8.26613 32698 ft 456 kts 148°
2026-05-07 18:26 58.03627 -8.18995 32695 ft 456 kts 148°
2026-05-07 18:27 57.98724 -8.11401 32701 ft 457 kts 148°
2026-05-07 18:27 57.93797 -8.03799 32669 ft 457 kts 148°
2026-05-07 18:28 57.88993 -7.96410 32719 ft 455 kts 148°
2026-05-07 18:28 57.84084 -7.88892 32717 ft 454 kts 148°
2026-05-07 18:29 57.79178 -7.81402 32729 ft 454 kts 148°
2026-05-07 18:29 57.74278 -7.73950 32740 ft 454 kts 148°
2026-05-07 18:30 57.69378 -7.66526 32713 ft 454 kts 148°
2026-05-07 18:30 57.64489 -7.59144 32736 ft 454 kts 147°
2026-05-07 18:31 57.59601 -7.51789 32763 ft 454 kts 147°
2026-05-07 18:31 57.54661 -7.44383 32783 ft 455 kts 148°
2026-05-07 18:32 57.49712 -7.36990 32782 ft 455 kts 148°
2026-05-07 18:32 57.44793 -7.29667 32784 ft 455 kts 148°
2026-05-07 18:33 57.39845 -7.22330 32770 ft 456 kts 147°
2026-05-07 18:33 57.34881 -7.14993 32747 ft 456 kts 147°
2026-05-07 18:34 57.29923 -7.07689 32781 ft 456 kts 147°
2026-05-07 18:34 57.24951 -7.00392 32801 ft 456 kts 147°
2026-05-07 18:35 57.20058 -6.93237 32808 ft 457 kts 147°
2026-05-07 18:35 57.15066 -6.85964 32829 ft 457 kts 147°
2026-05-07 18:36 57.10099 -6.78751 32833 ft 458 kts 147°
2026-05-07 18:36 57.05091 -6.71505 32837 ft 458 kts 147°
2026-05-07 18:37 57.00072 -6.64267 32836 ft 458 kts 147°
2026-05-07 18:37 56.95059 -6.57064 32853 ft 458 kts 147°
2026-05-07 18:38 56.90028 -6.49861 32840 ft 458 kts 147°
2026-05-07 18:38 56.85004 -6.42693 32851 ft 458 kts 147°
2026-05-07 18:39 56.79985 -6.35557 32852 ft 458 kts 147°
2026-05-07 18:39 56.74978 -6.28463 32865 ft 458 kts 147°
2026-05-07 18:40 56.69929 -6.21334 32869 ft 459 kts 147°
2026-05-07 18:40 56.64874 -6.14223 32866 ft 459 kts 147°
2026-05-07 18:41 56.59807 -6.07118 32876 ft 460 kts 147°
2026-05-07 18:41 56.54727 -6.00020 32877 ft 461 kts 147°
2026-05-07 18:42 56.49751 -5.93091 32877 ft 461 kts 147°
2026-05-07 18:42 56.44702 -5.86085 32888 ft 461 kts 147°
2026-05-07 18:43 56.39611 -5.79045 32885 ft 462 kts 147°
2026-05-07 18:43 56.34500 -5.72001 32889 ft 461 kts 147°
2026-05-07 18:44 56.29403 -5.65000 32892 ft 460 kts 147°
2026-05-07 18:44 56.24332 -5.58059 32898 ft 460 kts 147°
2026-05-07 18:45 56.19244 -5.51120 32897 ft 459 kts 147°
2026-05-07 18:45 56.14146 -5.44190 32899 ft 459 kts 147°
2026-05-07 18:46 56.09054 -5.37292 32904 ft 459 kts 147°
2026-05-07 18:46 56.03982 -5.30445 32908 ft 459 kts 147°
2026-05-07 18:47 55.98877 -5.23576 32902 ft 460 kts 147°
2026-05-07 18:47 55.93761 -5.16716 32927 ft 460 kts 147°
2026-05-07 18:48 55.88638 -5.09869 32906 ft 460 kts 147°
2026-05-07 18:48 55.83554 -5.03096 32908 ft 456 kts 147°
2026-05-07 18:49 55.78559 -4.96461 32920 ft 454 kts 147°
2026-05-07 18:49 55.73495 -4.89762 32923 ft 454 kts 147°
2026-05-07 18:50 55.68416 -4.83066 32914 ft 454 kts 147°
2026-05-07 18:50 55.63353 -4.76413 32924 ft 456 kts 147°
2026-05-07 18:51 55.58244 -4.69720 32927 ft 457 kts 147°
2026-05-07 18:51 55.53128 -4.63039 32941 ft 458 kts 147°
2026-05-07 18:52 55.47996 -4.56359 32936 ft 458 kts 147°
2026-05-07 18:52 55.42904 -4.49754 32926 ft 458 kts 147°
2026-05-07 18:53 55.37743 -4.43081 32949 ft 459 kts 147°
2026-05-07 18:53 55.32601 -4.36454 32943 ft 456 kts 147°
2026-05-07 18:54 55.27478 -4.29872 32941 ft 455 kts 147°
2026-05-07 18:54 55.22411 -4.23386 32953 ft 454 kts 147°
2026-05-07 18:55 55.17297 -4.16862 32951 ft 454 kts 147°
2026-05-07 18:55 55.12193 -4.10370 32963 ft 454 kts 147°
2026-05-07 18:56 55.07077 -4.03883 32963 ft 456 kts 147°
2026-05-07 18:56 55.02015 -3.97486 32963 ft 457 kts 147°
2026-05-07 18:57 54.96897 -3.91039 32975 ft 457 kts 147°
2026-05-07 18:57 54.91729 -3.84549 32965 ft 459 kts 147°
2026-05-07 18:58 54.86533 -3.78046 32964 ft 459 kts 147°
2026-05-07 18:58 54.81351 -3.71580 32969 ft 459 kts 147°
2026-05-07 18:59 54.76161 -3.65125 32980 ft 458 kts 147°
2026-05-07 18:59 54.71022 -3.58754 32981 ft 457 kts 147°
2026-05-07 19:00 54.65838 -3.52349 32971 ft 458 kts 147°
2026-05-07 19:00 54.60637 -3.45943 32981 ft 459 kts 147°
2026-05-07 19:01 54.55439 -3.39561 32987 ft 460 kts 147°
2026-05-07 19:01 54.50217 -3.33170 32987 ft 461 kts 147°
2026-05-07 19:02 54.44917 -3.26919 32976 ft 460 kts 152°
2026-05-07 19:02 54.39138 -3.22268 32993 ft 459 kts 160°
2026-05-07 19:03 54.33177 -3.18199 32981 ft 460 kts 160°
2026-05-07 19:03 54.27277 -3.14133 32984 ft 460 kts 159°
2026-05-07 19:04 54.21306 -3.09994 32988 ft 459 kts 159°
2026-05-07 19:04 54.15415 -3.05913 33004 ft 461 kts 159°
2026-05-07 19:05 54.09455 -3.01798 33002 ft 463 kts 159°
2026-05-07 19:05 54.03565 -2.97745 32998 ft 465 kts 159°
2026-05-07 19:06 53.97571 -2.93633 33001 ft 465 kts 160°
2026-05-07 19:06 53.88570 -2.87483 33007 ft 468 kts 160°
2026-05-07 19:07 53.82510 -2.83358 33003 ft 469 kts 160°
2026-05-07 19:07 53.76435 -2.79236 33005 ft 470 kts 160°
2026-05-07 19:08 53.70396 -2.75151 32996 ft 470 kts 160°
2026-05-07 19:08 53.64317 -2.71074 33006 ft 471 kts 160°
2026-05-07 19:09 53.58217 -2.66960 33012 ft 473 kts 160°
2026-05-07 19:09 53.52065 -2.62827 33010 ft 474 kts 160°
2026-05-07 19:10 53.45978 -2.58761 33008 ft 474 kts 160°
2026-05-07 19:10 53.39850 -2.54678 33012 ft 472 kts 160°
2026-05-07 19:11 53.33755 -2.50634 33015 ft 471 kts 160°
2026-05-07 19:11 53.28669 -2.47268 33022 ft 471 kts 160°
2026-05-07 19:12 53.21579 -2.42588 33012 ft 470 kts 160°
2026-05-07 19:12 53.16504 -2.39249 33016 ft 471 kts 160°
2026-05-07 19:13 53.10387 -2.35234 33022 ft 473 kts 160°
2026-05-07 19:13 53.04252 -2.31219 33017 ft 474 kts 160°
2026-05-07 19:14 52.98440 -2.26178 33014 ft 477 kts 150°
2026-05-07 19:14 52.92924 -2.20127 33023 ft 479 kts 148°
2026-05-07 19:15 52.87339 -2.14036 33027 ft 481 kts 149°
2026-05-07 19:15 52.81681 -2.08071 33027 ft 482 kts 150°
2026-05-07 19:16 52.76023 -2.02197 32825 ft 478 kts 150°
2026-05-07 19:16 52.73306 -1.99388 32423 ft 480 kts 150°
2026-05-07 19:16 52.70456 -1.96445 31919 ft 483 kts 150°
2026-05-07 19:17 52.67603 -1.93501 31301 ft 486 kts 150°
2026-05-07 19:17 52.64713 -1.90521 30436 ft 487 kts 150°
2026-05-07 19:17 52.61854 -1.87573 29692 ft 481 kts 150°
2026-05-07 19:17 52.59070 -1.84706 28958 ft 475 kts 150°
2026-05-07 19:18 52.56284 -1.81839 28286 ft 469 kts 150°
2026-05-07 19:18 52.53531 -1.79014 27642 ft 463 kts 150°
2026-05-07 19:18 52.50810 -1.76226 26984 ft 458 kts 150°
2026-05-07 19:18 52.48120 -1.73475 26351 ft 453 kts 150°
2026-05-07 19:19 52.45454 -1.70755 25719 ft 449 kts 150°
2026-05-07 19:19 52.42810 -1.68060 25101 ft 445 kts 150°
2026-05-07 19:19 52.40197 -1.65400 24483 ft 441 kts 150°
2026-05-07 19:19 52.37595 -1.62755 23870 ft 438 kts 150°
2026-05-07 19:20 52.35017 -1.60138 23216 ft 435 kts 150°
2026-05-07 19:20 52.32448 -1.57534 22549 ft 432 kts 150°
2026-05-07 19:20 52.29908 -1.54961 21957 ft 427 kts 150°
2026-05-07 19:20 52.27389 -1.52413 21356 ft 423 kts 150°
2026-05-07 19:21 52.24914 -1.49913 20850 ft 420 kts 150°
2026-05-07 19:21 52.22424 -1.47404 20533 ft 418 kts 150°
2026-05-07 19:21 52.20026 -1.44733 20213 ft 417 kts 144°
2026-05-07 19:21 52.17831 -1.41754 19906 ft 416 kts 141°
2026-05-07 19:22 52.15679 -1.38616 19599 ft 414 kts 140°
2026-05-07 19:22 52.13544 -1.35483 19295 ft 412 kts 140°
2026-05-07 19:22 52.11405 -1.32393 18772 ft 412 kts 141°
2026-05-07 19:22 52.09263 -1.29356 18108 ft 413 kts 141°
2026-05-07 19:23 52.07088 -1.26313 17372 ft 410 kts 141°
2026-05-07 19:23 52.04926 -1.23310 16666 ft 407 kts 141°
2026-05-07 19:23 52.02781 -1.20340 15933 ft 405 kts 141°
2026-05-07 19:23 52.00646 -1.17387 15360 ft 400 kts 141°
2026-05-07 19:24 51.98572 -1.14519 15096 ft 388 kts 141°
2026-05-07 19:24 51.96525 -1.11694 14786 ft 383 kts 141°
2026-05-07 19:24 51.94493 -1.08893 14421 ft 380 kts 141°
2026-05-07 19:24 51.92510 -1.06163 14108 ft 377 kts 141°
2026-05-07 19:25 51.90525 -1.03430 13636 ft 373 kts 141°
2026-05-07 19:25 51.88542 -1.00704 13017 ft 371 kts 141°
2026-05-07 19:25 51.86661 -0.98123 12420 ft 360 kts 141°
2026-05-07 19:25 51.84977 -0.95337 11766 ft 337 kts 126°
2026-05-07 19:26 51.83921 -0.92069 11178 ft 317 kts 117°
2026-05-07 19:26 51.83003 -0.88922 10631 ft 301 kts 117°
2026-05-07 19:26 51.81946 -0.86141 10102 ft 282 kts 136°
2026-05-07 19:26 51.80374 -0.84469 9552 ft 265 kts 164°
2026-05-07 19:27 51.78625 -0.84155 9021 ft 250 kts 185°
2026-05-07 19:27 51.76913 -0.84456 8365 ft 246 kts 189°
2026-05-07 19:27 51.75217 -0.84866 7664 ft 246 kts 189°
2026-05-07 19:27 51.73525 -0.85228 6990 ft 245 kts 184°
2026-05-07 19:28 51.71822 -0.85143 6304 ft 244 kts 173°
2026-05-07 19:28 51.70142 -0.84725 5619 ft 244 kts 170°
2026-05-07 19:28 51.68499 -0.84280 5221 ft 234 kts 170°
2026-05-07 19:28 51.66877 -0.83839 5068 ft 238 kts 170°
2026-05-07 19:29 51.65256 -0.83402 4999 ft 232 kts 170°
2026-05-07 19:29 51.63692 -0.82982 4988 ft 228 kts 170°
2026-05-07 19:29 51.62149 -0.82569 4994 ft 231 kts 170°
2026-05-07 19:29 51.60550 -0.82137 5003 ft 231 kts 170°
2026-05-07 19:30 51.58969 -0.81707 4996 ft 230 kts 170°
2026-05-07 19:30 51.57386 -0.81278 5004 ft 232 kts 170°
2026-05-07 19:30 51.55812 -0.80864 4855 ft 230 kts 169°
2026-05-07 19:30 51.54227 -0.80465 4453 ft 229 kts 169°
2026-05-07 19:31 51.52695 -0.80096 4202 ft 212 kts 170°
2026-05-07 19:31 51.51392 -0.79346 3988 ft 191 kts 137°
2026-05-07 19:31 51.50548 -0.77752 3743 ft 193 kts 123°
2026-05-07 19:31 51.49824 -0.75956 3484 ft 190 kts 121°
2026-05-07 19:32 51.49122 -0.74155 3224 ft 188 kts 121°
2026-05-07 19:32 51.48463 -0.72468 3124 ft 168 kts 121°
2026-05-07 19:32 51.47939 -0.70902 2984 ft 153 kts 102°
2026-05-07 19:32 51.47852 -0.69150 3029 ft 167 kts 97°
2026-05-07 19:33 51.47723 -0.67311 2999 ft 169 kts 94°
2026-05-07 19:33 51.47690 -0.65394 2878 ft 173 kts 91°
2026-05-07 19:33 51.47714 -0.63459 2475 ft 170 kts 91°
2026-05-07 19:33 51.47724 -0.61611 1906 ft 163 kts 92°
2026-05-07 19:34 51.47730 -0.59846 1424 ft 152 kts 91°
2026-05-07 19:34 51.47742 -0.58205 1025 ft 140 kts 92°
2026-05-07 19:34 51.47736 -0.56688 720 ft 137 kts 93°
2026-05-07 19:34 51.47720 -0.55153 639 ft 141 kts 92°
2026-05-07 19:35 51.47722 -0.53554 533 ft 144 kts 91°
2026-05-07 19:35 51.47734 -0.51961 410 ft 142 kts 93°
2026-05-07 19:35 51.47740 -0.50402 311 ft 139 kts 91°
2026-05-07 19:35 51.47750 -0.48833 175 ft 140 kts 91°
2026-05-07 19:36 51.47753 -0.47357 89 ft 123 kts 90°
2026-05-07 19:36 51.47751 -0.46182 92 ft 90 kts 89°
2026-05-07 19:36 51.47756 -0.45371 94 ft 54 kts 88°
2026-05-07 19:36 51.47763 -0.44938 97 ft 36 kts 90°
2026-05-07 19:37 51.47743 -0.44550 95 ft 27 kts 105°
2026-05-07 19:37 51.47685 -0.44330 95 ft 9 kts 117°
2026-05-07 19:37 51.47654 -0.44259 95 ft 9 kts 139°
2026-05-07 19:37 51.47615 -0.44263 95 ft 4 kts 229°
2026-05-07 19:38 51.47607 -0.44303 93 ft 4 kts 261°
2026-05-07 19:38 51.47606 -0.44342 92 ft 4 kts 268°
2026-05-07 19:38 51.47604 -0.44526 93 ft 27 kts 270°
2026-05-07 19:38 51.47601 -0.44825 95 ft 26 kts 269°
2026-05-07 19:39 51.47598 -0.45121 95 ft 27 kts 268°
2026-05-07 19:39 51.47596 -0.45421 94 ft 28 kts 270°
2026-05-07 19:39 51.47601 -0.45729 90 ft 28 kts 269°
2026-05-07 19:39 51.47599 -0.46031 92 ft 27 kts 269°
2026-05-07 19:40 51.47596 -0.46324 97 ft 25 kts 268°
2026-05-07 19:40 51.47593 -0.46604 98 ft 25 kts 270°
2026-05-07 19:40 51.47591 -0.46870 94 ft 24 kts 267°
2026-05-07 19:40 51.47590 -0.47139 92 ft 22 kts 265°
2026-05-07 19:41 51.47524 -0.47342 93 ft 22 kts 198°
2026-05-07 19:41 51.47373 -0.47355 91 ft 22 kts 180°
2026-05-07 19:41 51.47223 -0.47359 90 ft 20 kts 180°
2026-05-07 19:41 51.47095 -0.47357 90 ft 18 kts 180°
2026-05-07 19:42 51.46997 -0.47358 93 ft 11 kts 180°
2026-05-07 19:42 51.46955 -0.47359 92 ft 0 kts 181°
2026-05-07 19:42 51.46947 -0.47360 90 ft 5 kts 186°
2026-05-07 19:42 51.46922 -0.47409 93 ft 6 kts 253°
2026-05-07 19:43 51.46917 -0.47474 91 ft 2 kts 268°
2026-05-07 19:43 51.46917 -0.47499 90 ft 0 kts 269°